DW4078 Weather Reports


Display with metric or nautical units.
time (UTC)temp
F
wind
direction
speed
MPH
gust
MPH
rain 1hr
in
rain 24hr
in
rain mn
in
humidity
%
barometer
mb
20260902143802 86 164 1.0 4.0 0.00 0.00 0.00 74 1017.8
20260902143703 86 166 1.0 4.0 0.00 0.00 0.00 75 1017.7
20260902143602 86 165 1.0 4.0 0.00 0.00 0.00 75 1017.6
20260902143523 85 170 1.0 4.0 0.00 0.00 0.00 74 1017.8
20260902143402 85 166 1.0 4.0 0.00 0.00 0.00 74 1017.7
20260902143303 85 161 1.0 4.0 0.00 0.00 0.00 75 1017.7
20260902143202 85 158 1.0 4.0 0.00 0.00 0.00 75 1017.5
20260902143102 85 158 1.0 4.0 0.00 0.00 0.00 74 1017.6
20260902143002 85 157 1.0 4.0 0.00 0.00 0.00 76 1017.8
20260902142902 85 155 1.0 3.0 0.00 0.00 0.00 76 1017.8
20260902142802 85 153 1.0 3.0 0.00 0.00 0.00 76 1017.5
20260902142704 85 154 1.0 3.0 0.00 0.00 0.00 76 1017.6
20260902142623 85 154 1.0 3.0 0.00 0.00 0.00 76 1017.5
20260902142502 85 153 1.0 3.0 0.00 0.00 0.00 76 1017.6
20260902142402 85 157 1.0 3.0 0.00 0.00 0.00 75 1017.6
20260902142306 85 158 1.0 3.0 0.00 0.00 0.00 77 1017.5
20260902142223 85 155 1.0 3.0 0.00 0.00 0.00 77 1017.5
20260902142103 84 154 1.0 3.0 0.00 0.00 0.00 76 1017.5
20260902142023 84 154 1.0 2.0 0.00 0.00 0.00 78 1017.5
20260902141903 84 156 1.0 2.0 0.00 0.00 0.00 77 1017.4
20260902141802 84 157 1.0 2.0 0.00 0.00 0.00 77 1017.6
20260902141724 84 155 1.0 2.0 0.00 0.00 0.00 78 1017.5
20260902141603 84 156 1.0 2.0 0.00 0.00 0.00 78 1017.5
20260902141502 84 157 1.0 2.0 0.00 0.00 0.00 77 1017.5
20260902141403 84 154 1.0 4.0 0.00 0.00 0.00 79 1017.6
20260902141302 84 153 1.0 4.0 0.00 0.00 0.00 78 1017.4
20260902141203 84 150 1.0 4.0 0.00 0.00 0.00 78 1017.6
20260902141102 84 155 1.0 4.0 0.00 0.00 0.00 78 1017.6
20260902141002 84 153 1.0 4.0 0.00 0.00 0.00 78 1017.6
20260902140903 84 153 1.0 4.0 0.00 0.00 0.00 79 1017.6
20260902140803 83 156 1.0 4.0 0.00 0.00 0.00 79 1017.6
20260902140702 83 160 1.0 4.0 0.00 0.00 0.00 79 1017.6
20260902140623 83 159 1.0 4.0 0.00 0.00 0.00 79 1017.5
20260902140503 83 153 1.0 4.0 0.00 0.00 0.00 79 1017.5
20260902140402 83 152 1.0 3.0 0.00 0.00 0.00 80 1017.6
20260902140302 83 155 1.0 3.0 0.00 0.00 0.00 80 1017.4
20260902140202 83 157 1.0 3.0 0.00 0.00 0.00 80 1017.6
20260902140123 83 156 1.0 3.0 0.00 0.00 0.00 80 1017.5
20260902140002 83 160 1.0 3.0 0.00 0.00 0.00 80 1017.5
20260902135902 83 159 1.0 4.0 0.00 0.00 0.00 80 1017.3
20260902135802 83 158 1.0 4.0 0.00 0.00 0.00 80 1017.5
20260902135703 83 154 1.0 4.0 0.00 0.00 0.00 80 1017.4
20260902135623 83 152 1.0 4.0 0.00 0.00 0.00 80 1017.4
20260902135524 83 150 1.0 4.0 0.00 0.00 0.00 81 1017.7
20260902135404 82 151 1.0 4.0 0.00 0.00 0.00 80 1017.3
20260902135306 82 145 1.0 4.0 0.00 0.00 0.00 81 1017.3
20260902135223 82 145 1.0 4.0 0.00 0.00 0.00 82 1017.5
20260902135102 82 146 1.0 4.0 0.00 0.00 0.00 82 1017.5
20260902135003 82 143 1.0 4.0 0.00 0.00 0.00 82 1017.5
20260902134924 82 143 1.0 3.0 0.00 0.00 0.00 82 1017.3
20260902134803 82 141 1.0 3.0 0.00 0.00 0.00 83 1017.3
20260902134723 82 142 1.0 4.0 0.00 0.00 0.00 83 1017.6
20260902134602 82 146 1.0 4.0 0.00 0.00 0.00 82 1017.4
20260902134503 82 147 1.0 4.0 0.00 0.00 0.00 83 1017.5
20260902134424 82 146 1.0 4.0 0.00 0.00 0.00 83 1017.3
20260902134302 82 149 1.0 4.0 0.00 0.00 0.00 83 1017.4
20260902134202 82 143 1.0 4.0 0.00 0.00 0.00 83 1017.5
20260902134103 82 144 1.0 4.0 0.00 0.00 0.00 83 1017.5
20260902134002 81 142 1.0 4.0 0.00 0.00 0.00 83 1017.4
20260902133903 81 143 1.0 4.0 0.00 0.00 0.00 83 1017.3
20260902133803 81 142 1.0 4.0 0.00 0.00 0.00 83 1017.7
20260902133703 81 140 1.0 4.0 0.00 0.00 0.00 83 1017.6
20260902133602 81 140 1.0 4.0 0.00 0.00 0.00 84 1017.5
20260902133503 81 139 1.0 4.0 0.00 0.00 0.00 84 1017.4
20260902133403 81 148 1.0 4.0 0.00 0.00 0.00 84 1017.5
20260902133303 81 150 1.0 4.0 0.00 0.00 0.00 84 1017.5
20260902133203 81 152 1.0 4.0 0.00 0.00 0.00 84 1017.6
20260902133123 81 148 1.0 4.0 0.00 0.00 0.00 84 1017.6
20260902133003 81 149 1.0 4.0 0.00 0.00 0.00 85 1017.5
20260902132903 80 147 1.0 4.0 0.00 0.00 0.00 84 1017.5
20260902132802 80 143 1.0 4.0 0.00 0.00 0.00 85 1017.5
20260902132702 80 142 2.0 4.0 0.00 0.00 0.00 85 1017.5
20260902132603 80 143 2.0 7.0 0.00 0.00 0.00 85 1017.5
20260902132502 80 143 2.0 7.0 0.00 0.00 0.00 85 1017.3
20260902132402 80 138 2.0 7.0 0.00 0.00 0.00 86 1017.5
20260902132306 80 138 2.0 7.0 0.00 0.00 0.00 86 1017.6
20260902132203 80 137 2.0 7.0 0.00 0.00 0.00 86 1017.5
20260902132102 80 138 3.0 7.0 0.00 0.00 0.00 86 1017.4
20260902132002 79 138 3.0 7.0 0.00 0.00 0.00 86 1017.6
20260902131902 79 137 3.0 7.0 0.00 0.00 0.00 86 1017.3
20260902131802 79 138 2.0 7.0 0.00 0.00 0.00 86 1017.4
20260902131723 79 138 2.0 7.0 0.00 0.00 0.00 86 1017.5
20260902131602 79 133 2.0 4.0 0.00 0.00 0.00 87 1017.3
20260902131503 79 131 2.0 4.0 0.00 0.00 0.00 87 1017.5
20260902131402 79 130 2.0 4.0 0.00 0.00 0.00 86 1017.3
20260902131303 79 128 1.0 4.0 0.00 0.00 0.00 86 1017.4
20260902131203 79 130 1.0 4.0 0.00 0.00 0.00 87 1017.4
20260902131103 79 130 1.0 4.0 0.00 0.00 0.00 87 1017.5
20260902131002 79 129 1.0 4.0 0.00 0.00 0.00 86 1017.6
20260902130903 79 130 1.0 4.0 0.00 0.00 0.00 87 1017.6
20260902130802 79 131 1.0 4.0 0.00 0.00 0.00 87 1017.7
20260902130702 79 129 1.0 4.0 0.00 0.00 0.00 87 1017.5
20260902130623 79 129 1.0 4.0 0.00 0.00 0.00 87 1017.6
20260902130523 79 131 1.0 4.0 0.00 0.00 0.00 88 1017.6
20260902130402 78 130 2.0 4.0 0.00 0.00 0.00 88 1017.6
20260902130303 78 130 2.0 4.0 0.00 0.00 0.00 88 1017.6
20260902130202 78 130 2.0 4.0 0.00 0.00 0.00 88 1017.6
20260902130002 78 127 2.0 4.0 0.00 0.00 0.00 88 1017.6
20260902125923 78 125 2.0 4.0 0.00 0.00 0.00 89 1017.6
20260902125803 78 124 2.0 4.0 0.00 0.00 0.00 89 1017.4
20260902125723 78 125 2.0 4.0 0.00 0.00 0.00 89 1017.5
20260902125602 78 128 2.0 4.0 0.00 0.00 0.00 89 1017.4
20260902125502 78 127 2.0 4.0 0.00 0.00 0.00 89 1017.4
20260902125402 78 126 1.0 3.0 0.00 0.00 0.00 89 1017.7
20260902125305 78 126 1.0 3.0 0.00 0.00 0.00 89 1017.5
20260902125203 78 127 1.0 3.0 0.00 0.00 0.00 89 1017.3
20260902125102 77 129 1.0 3.0 0.00 0.00 0.00 89 1017.5
20260902125002 77 130 2.0 6.0 0.00 0.00 0.00 89 1017.7
20260902124902 77 130 2.0 6.0 0.00 0.00 0.00 89 1017.5
20260902124824 77 131 2.0 6.0 0.00 0.00 0.00 89 1017.4
20260902124702 77 131 2.0 6.0 0.00 0.00 0.00 89 1017.5
20260902124603 77 130 2.0 6.0 0.00 0.00 0.00 89 1017.5
20260902124502 77 131 1.0 6.0 0.00 0.00 0.00 90 1017.5
20260902124402 77 132 1.0 6.0 0.00 0.00 0.00 90 1017.4
20260902124302 77 131 1.0 6.0 0.00 0.00 0.00 90 1017.7
20260902124203 77 130 2.0 6.0 0.00 0.00 0.00 90 1017.5
20260902124102 77 128 1.0 6.0 0.00 0.00 0.00 90 1017.5
20260902124002 76 126 1.0 4.0 0.00 0.00 0.00 90 1017.4
20260902123903 76 125 1.0 3.0 0.00 0.00 0.00 91 1017.7
20260902123803 76 126 1.0 3.0 0.00 0.00 0.00 90 1017.5
20260902123703 76 123 1.0 3.0 0.00 0.00 0.00 91 1017.5
20260902123625 76 123 1.0 3.0 0.00 0.00 0.00 91 1017.5
20260902123503 76 123 1.0 3.0 0.00 0.00 0.00 91 1017.5
20260902123403 76 123 1.0 3.0 0.00 0.00 0.00 91 1017.4
20260902123303 76 123 1.0 3.0 0.00 0.00 0.00 91 1017.4
20260902123203 76 123 1.0 2.0 0.00 0.00 0.00 91 1017.5
20260902123102 76 123 1.0 2.0 0.00 0.00 0.00 91 1017.4
20260902123002 76 124 1.0 3.0 0.00 0.00 0.00 91 1017.4
20260902122902 76 123 1.0 3.0 0.00 0.00 0.00 91 1017.4
20260902122824 76 122 1.0 3.0 0.00 0.00 0.00 91 1017.4
20260902122702 76 124 1.0 3.0 0.00 0.00 0.00 91 1017.6
20260902122603 76 123 1.0 3.0 0.00 0.00 0.00 91 1017.3
20260902122502 76 123 1.0 3.0 0.00 0.00 0.00 92 1017.5
20260902122402 75 123 1.0 3.0 0.00 0.00 0.00 92 1017.4
20260902122305 75 123 1.0 3.0 0.00 0.00 0.00 92 1017.3
20260902122203 75 123 1.0 3.0 0.00 0.00 0.00 92 1017.3
20260902122102 75 125 1.0 3.0 0.00 0.00 0.00 92 1017.3
20260902122002 75 126 1.0 3.0 0.00 0.00 0.00 92 1017.5
20260902121903 75 126 1.0 3.0 0.00 0.00 0.00 92 1017.2
20260902121802 75 126 1.0 3.0 0.00 0.00 0.00 92 1017.3
20260902121702 75 125 1.0 3.0 0.00 0.00 0.00 92 1017.3
20260902121602 75 126 1.0 3.0 0.00 0.00 0.00 92 1017.3
20260902121503 75 126 1.0 3.0 0.00 0.00 0.00 93 1017.3
20260902121402 75 127 1.0 3.0 0.00 0.00 0.00 93 1017.1
20260902121323 75 127 1.0 3.0 0.00 0.00 0.00 93 1017.3
20260902121202 75 127 0.0 3.0 0.00 0.00 0.00 93 1017.6
20260902121103 74 124 0.0 2.0 0.00 0.00 0.00 93 1017.1
20260902121003 74 122 0.0 1.0 0.00 0.00 0.00 93 1017.4
20260902120902 74 122 0.0 1.0 0.00 0.00 0.00 93 1017.4
20260902120802 74 121 0.0 1.0 0.00 0.00 0.00 94 1017.2
20260902120702 74 119 0.0 1.0 0.00 0.00 0.00 94 1017.3
20260902120602 74 118 0.0 1.0 0.00 0.00 0.00 94 1017.4
20260902120502 74 120 0.0 2.0 0.00 0.00 0.00 94 1017.4
20260902120402 74 121 0.0 2.0 0.00 0.00 0.00 94 1017.6
20260902120302 74 120 0.0 2.0 0.00 0.00 0.00 94 1017.3
20260902120202 74 120 0.0 2.0 0.00 0.00 0.00 94 1017.4
20260902120002 74 120 0.0 2.0 0.00 0.00 0.00 94 1017.5
20260902115924 74 120 0.0 2.0 0.00 0.00 0.00 94 1017.3
20260902115803 74 120 0.0 2.0 0.00 0.00 0.00 94 1017.3
20260902115702 74 120 0.0 2.0 0.00 0.00 0.00 94 1017.5
20260902115603 74 121 0.0 2.0 0.00 0.00 0.00 94 1017.4
20260902115502 74 119 0.0 2.0 0.00 0.00 0.00 95 1017.3
20260902115402 74 118 0.0 2.0 0.00 0.00 0.00 95 1017.5
20260902115307 74 118 0.0 2.0 0.00 0.00 0.00 95 1017.3
20260902115202 74 116 0.0 2.0 0.00 0.00 0.00 95 1017.3
20260902115102 74 115 0.0 2.0 0.00 0.00 0.00 95 1017.3
20260902115002 74 114 0.0 2.0 0.00 0.00 0.00 94 1017.2
20260902114903 74 114 0.0 2.0 0.00 0.00 0.00 94 1017.1
20260902114802 74 114 0.0 2.0 0.00 0.00 0.00 94 1017.2
20260902114702 74 114 0.0 2.0 0.00 0.00 0.00 95 1017.1
20260902114623 74 114 0.0 2.0 0.00 0.00 0.00 95 1017.2
20260902114502 74 113 0.0 1.0 0.00 0.00 0.00 95 1017.2
20260902114403 74 110 0.0 1.0 0.00 0.00 0.00 95 1017.2
20260902114302 74 112 0.0 1.0 0.00 0.00 0.00 95 1017.1
20260902114203 74 116 0.0 1.0 0.00 0.00 0.00 95 1017.0
20260902114103 74 119 0.0 1.0 0.00 0.00 0.00 95 1017.1
20260902114004 74 119 0.0 1.0 0.00 0.00 0.00 95 1017.0
20260902113902 74 119 0.0 1.0 0.00 0.00 0.00 95 1016.9
20260902113803 74 119 0.0 1.0 0.00 0.00 0.00 95 1016.9
20260902113702 74 119 0.0 1.0 0.00 0.00 0.00 95 1016.8
20260902113623 74 119 0.0 1.0 0.00 0.00 0.00 95 1016.8
20260902113502 74 120 0.0 2.0 0.00 0.00 0.00 95 1016.9
20260902113403 74 122 0.0 2.0 0.00 0.00 0.00 95 1016.8
20260902113303 74 122 0.0 2.0 0.00 0.00 0.00 95 1016.8
20260902113203 74 124 0.0 2.0 0.00 0.00 0.00 95 1016.9
20260902113102 74 124 0.0 2.0 0.00 0.00 0.00 95 1016.8
20260902113002 74 123 1.0 2.0 0.00 0.00 0.00 95 1016.9
20260902112923 74 123 1.0 2.0 0.00 0.00 0.00 95 1016.8
20260902112823 74 123 1.0 2.0 0.00 0.00 0.00 94 1016.9
20260902112702 74 123 1.0 2.0 0.00 0.00 0.00 95 1016.6
20260902112624 74 126 1.0 2.0 0.00 0.00 0.00 95 1016.9
20260902112502 74 127 1.0 2.0 0.00 0.00 0.00 95 1016.7
20260902112402 74 126 1.0 2.0 0.00 0.00 0.00 95 1016.8
20260902112305 74 126 1.0 2.0 0.00 0.00 0.00 95 1016.9
20260902112202 74 124 0.0 2.0 0.00 0.00 0.00 95 1017.0
20260902112102 73 124 0.0 2.0 0.00 0.00 0.00 95 1016.8
20260902112002 73 126 0.0 2.0 0.00 0.00 0.00 95 1016.8
20260902111902 74 125 0.0 2.0 0.00 0.00 0.00 95 1016.8
20260902111803 74 124 0.0 2.0 0.00 0.00 0.00 95 1016.8
20260902111704 74 124 0.0 2.0 0.00 0.00 0.00 95 1016.8
20260902111602 74 118 0.0 2.0 0.00 0.00 0.00 95 1016.7
20260902111502 74 118 0.0 2.0 0.00 0.00 0.00 95 1016.8
20260902111403 74 117 0.0 2.0 0.00 0.00 0.00 95 1016.5
20260902111302 74 119 0.0 2.0 0.00 0.00 0.00 95 1016.6
20260902111202 74 118 0.0 2.0 0.00 0.00 0.00 95 1016.6
20260902111102 74 120 0.0 2.0 0.00 0.00 0.00 95 1016.7
20260902111003 74 120 0.0 2.0 0.00 0.00 0.00 95 1016.6
20260902110903 74 119 0.0 2.0 0.00 0.00 0.00 95 1016.8
20260902110802 74 117 0.0 2.0 0.00 0.00 0.00 95 1016.7
20260902110703 74 117 0.0 2.0 0.00 0.00 0.00 95 1016.6
20260902110602 74 115 0.0 2.0 0.00 0.00 0.00 95 1016.5
20260902110504 74 116 0.0 2.0 0.00 0.00 0.00 95 1017.0
20260902110402 74 115 0.0 2.0 0.00 0.00 0.00 95 1016.8
20260902110303 74 115 0.0 2.0 0.00 0.00 0.00 95 1016.8
20260902110202 74 115 0.0 2.0 0.00 0.00 0.00 95 1016.8
20260902110005 74 113 0.0 2.0 0.00 0.00 0.00 95 1016.6
20260902105902 74 113 0.0 2.0 0.00 0.00 0.00 95 1016.8
20260902105802 74 114 0.0 2.0 0.00 0.00 0.00 95 1016.8
20260902105703 74 115 0.0 2.0 0.00 0.00 0.00 95 1016.8
20260902105624 74 118 0.0 2.0 0.00 0.00 0.00 95 1016.7
20260902105523 74 117 0.0 2.0 0.00 0.00 0.00 95 1016.7
20260902105423 74 115 0.0 2.0 0.00 0.00 0.00 95 1016.8
20260902105306 74 114 0.0 2.0 0.00 0.00 0.00 95 1016.7
20260902105203 73 117 0.0 2.0 0.00 0.00 0.00 95 1016.8
20260902105103 73 116 0.0 2.0 0.00 0.00 0.00 95 1016.6
20260902105023 73 117 0.0 2.0 0.00 0.00 0.00 95 1016.8
20260902104902 73 115 0.0 2.0 0.00 0.00 0.00 95 1016.8
20260902104802 73 116 0.0 2.0 0.00 0.00 0.00 95 1016.7
20260902104702 73 116 0.0 2.0 0.00 0.00 0.00 95 1016.7
20260902104602 73 114 0.0 2.0 0.00 0.00 0.00 95 1016.7
20260902104502 73 117 0.0 2.0 0.00 0.00 0.00 95 1016.6
20260902104402 73 119 0.0 2.0 0.00 0.00 0.00 95 1016.6
20260902104323 73 123 0.0 3.0 0.00 0.00 0.00 95 1016.7
20260902104203 73 127 0.0 4.0 0.00 0.00 0.00 95 1016.7
20260902104102 73 126 0.0 4.0 0.00 0.00 0.00 95 1016.7
20260902104003 74 126 0.0 4.0 0.00 0.00 0.00 95 1016.5
20260902103923 74 129 0.0 4.0 0.00 0.00 0.00 95 1016.5
20260902103803 74 131 0.0 4.0 0.00 0.00 0.00 95 1016.6
20260902103703 74 131 0.0 4.0 0.00 0.00 0.00 95 1016.6
20260902103623 74 131 0.0 4.0 0.00 0.00 0.00 95 1016.6
20260902103503 74 128 0.0 4.0 0.00 0.00 0.00 95 1016.6
20260902103423 74 128 0.0 4.0 0.00 0.00 0.00 95 1016.6
20260902103302 74 123 0.0 3.0 0.00 0.00 0.00 95 1016.5
20260902103223 74 123 0.0 3.0 0.00 0.00 0.00 95 1016.4
20260902103102 74 123 0.0 3.0 0.00 0.00 0.00 95 1016.7
20260902103003 74 123 0.0 3.0 0.00 0.00 0.00 95 1016.7
20260902102903 74 124 0.0 3.0 0.00 0.00 0.00 95 1016.6
20260902102802 74 124 0.0 3.0 0.00 0.00 0.00 95 1016.7
20260902102703 74 124 0.0 3.0 0.00 0.00 0.00 95 1016.6
20260902102602 74 122 0.0 1.0 0.00 0.00 0.00 95 1016.7
20260902102502 74 124 0.0 2.0 0.00 0.00 0.00 95 1016.7
20260902102402 74 127 0.0 2.0 0.00 0.00 0.00 95 1016.8
20260902102307 74 126 0.0 2.0 0.00 0.00 0.00 95 1016.6
20260902102203 74 126 0.0 2.0 0.00 0.00 0.00 95 1016.6
20260902102123 74 127 0.0 2.0 0.00 0.00 0.00 95 1016.7
20260902102024 74 127 0.0 2.0 0.00 0.00 0.00 95 1016.6
20260902101902 74 127 0.0 2.0 0.00 0.00 0.00 95 1016.7
20260902101802 74 125 0.0 2.0 0.00 0.00 0.00 95 1016.7
20260902101703 74 125 0.0 2.0 0.00 0.00 0.00 95 1016.7
20260902101602 74 125 0.0 2.0 0.00 0.00 0.00 95 1016.7
20260902101503 74 124 0.0 2.0 0.00 0.00 0.00 95 1016.5
20260902101402 74 120 0.0 2.0 0.00 0.00 0.00 95 1016.5
20260902101324 74 120 0.0 2.0 0.00 0.00 0.00 95 1016.6
20260902101223 74 122 0.0 2.0 0.00 0.00 0.00 95 1016.5
20260902101102 74 124 0.0 2.0 0.00 0.00 0.00 95 1016.6
20260902101003 74 123 0.0 2.0 0.00 0.00 0.00 95 1016.4
20260902100902 74 125 0.0 2.0 0.00 0.00 0.00 95 1016.5
20260902100802 74 127 0.0 2.0 0.00 0.00 0.00 95 1016.6
20260902100702 74 127 0.0 2.0 0.00 0.00 0.00 95 1016.3
20260902100604 74 126 0.0 2.0 0.00 0.00 0.00 95 1016.6
20260902100502 74 133 1.0 3.0 0.00 0.00 0.00 95 1016.5
20260902100403 74 131 1.0 3.0 0.00 0.00 0.00 95 1016.6
20260902100302 74 130 1.0 3.0 0.00 0.00 0.00 95 1016.7
20260902100202 74 133 1.0 3.0 0.00 0.00 0.00 95 1016.5
20260902100023 74 135 1.0 3.0 0.00 0.00 0.00 95 1016.6
20260902095903 74 134 1.0 3.0 0.00 0.00 0.00 95 1016.5
20260902095803 74 132 1.0 3.0 0.00 0.00 0.00 95 1016.6
20260902095724 74 132 1.0 3.0 0.00 0.00 0.00 95 1016.6
20260902095602 74 132 1.0 3.0 0.00 0.00 0.00 95 1016.7
20260902095503 74 128 1.0 3.0 0.00 0.00 0.00 95 1016.7
20260902095402 74 134 1.0 3.0 0.00 0.00 0.00 95 1016.5
20260902095306 74 133 1.0 3.0 0.00 0.00 0.00 95 1016.6
20260902095203 74 131 1.0 3.0 0.00 0.00 0.00 95 1016.7
20260902095102 74 128 1.0 3.0 0.00 0.00 0.00 95 1016.6
20260902095002 74 127 1.0 3.0 0.00 0.00 0.00 95 1016.6
20260902094902 74 126 1.0 3.0 0.00 0.00 0.00 95 1016.6
20260902094802 74 126 1.0 3.0 0.00 0.00 0.00 95 1016.5
20260902094702 74 127 1.0 3.0 0.00 0.00 0.00 95 1016.6
20260902094602 74 124 1.0 3.0 0.00 0.00 0.00 95 1016.7
20260902094503 74 125 1.0 3.0 0.00 0.00 0.00 95 1016.7
20260902094402 74 124 1.0 3.0 0.00 0.00 0.00 95 1016.6
20260902094302 74 126 1.0 3.0 0.00 0.00 0.00 95 1016.5
20260902094202 74 127 1.0 3.0 0.00 0.00 0.00 95 1016.7
20260902094103 74 127 1.0 3.0 0.00 0.00 0.00 95 1016.6
20260902094002 74 127 1.0 3.0 0.00 0.00 0.00 95 1016.7
20260902093902 74 129 1.0 3.0 0.00 0.00 0.00 95 1016.6
20260902093802 74 130 1.0 3.0 0.00 0.00 0.00 95 1016.6
20260902093702 74 130 1.0 3.0 0.00 0.00 0.00 95 1016.6
20260902093602 74 131 1.0 3.0 0.00 0.00 0.00 95 1016.7
20260902093502 74 133 1.0 3.0 0.00 0.00 0.00 95 1016.7
20260902093402 74 129 1.0 3.0 0.00 0.00 0.00 95 1016.6
20260902093303 74 129 0.0 3.0 0.00 0.00 0.00 95 1016.7
20260902093202 74 126 0.0 2.0 0.00 0.00 0.00 95 1016.7
20260902093102 74 128 0.0 2.0 0.00 0.00 0.00 95 1016.7
20260902093003 74 129 0.0 2.0 0.00 0.00 0.00 95 1016.7
20260902092903 74 125 0.0 2.0 0.00 0.00 0.00 95 1016.8
20260902092823 74 127 0.0 3.0 0.00 0.00 0.00 95 1016.8
20260902092702 74 127 0.0 3.0 0.00 0.00 0.00 95 1016.8
20260902092602 74 127 0.0 3.0 0.00 0.00 0.00 95 1016.8
20260902092523 74 127 0.0 3.0 0.00 0.00 0.00 95 1016.5
20260902092403 74 124 0.0 3.0 0.00 0.00 0.00 95 1016.8
20260902092305 74 125 1.0 3.0 0.00 0.00 0.00 95 1016.8
20260902092202 74 125 1.0 3.0 0.00 0.00 0.00 95 1016.7
20260902092103 74 127 1.0 3.0 0.00 0.00 0.00 95 1016.8
20260902092023 74 127 1.0 3.0 0.00 0.00 0.00 95 1016.8
20260902091925 74 126 1.0 3.0 0.00 0.00 0.00 95 1016.7
20260902091803 74 125 1.0 3.0 0.00 0.00 0.00 95 1016.6
20260902091703 74 125 1.0 3.0 0.00 0.00 0.00 95 1016.8
20260902091623 74 125 1.0 3.0 0.00 0.00 0.00 95 1016.8
20260902091502 74 124 1.0 3.0 0.00 0.00 0.00 95 1016.8
20260902091424 74 123 1.0 3.0 0.00 0.00 0.00 95 1016.7
20260902091303 74 123 1.0 3.0 0.00 0.00 0.00 95 1016.6
20260902091202 74 123 0.0 3.0 0.00 0.00 0.00 95 1016.8
20260902091102 74 120 0.0 3.0 0.00 0.00 0.00 95 1016.7
20260902091002 74 120 0.0 3.0 0.00 0.00 0.00 95 1016.7
20260902090902 74 122 0.0 3.0 0.00 0.00 0.00 95 1016.7
20260902090802 74 121 0.0 3.0 0.00 0.00 0.00 95 1016.8
20260902090702 74 120 0.0 3.0 0.00 0.00 0.00 95 1016.7
20260902090623 74 125 1.0 3.0 0.00 0.00 0.00 95 1016.9
20260902090502 74 128 1.0 3.0 0.00 0.00 0.00 95 1016.8
20260902090403 74 130 0.0 3.0 0.00 0.00 0.00 95 1016.8
20260902090302 74 132 0.0 3.0 0.00 0.00 0.00 95 1016.8
20260902090202 74 132 1.0 2.0 0.00 0.00 0.00 95 1016.9
20260902090123 74 132 1.0 2.0 0.00 0.00 0.00 95 1017.0
20260902090002 74 132 1.0 2.0 0.00 0.00 0.00 95 1017.0
20260902085903 74 127 1.0 3.0 0.00 0.00 0.00 95 1016.8
20260902085824 74 127 1.0 3.0 0.00 0.00 0.00 95 1017.0
20260902085702 74 129 1.0 3.0 0.00 0.00 0.00 95 1017.0
20260902085603 74 125 1.0 3.0 0.00 0.00 0.00 95 1017.0
20260902085502 74 123 1.0 3.0 0.00 0.00 0.00 95 1017.1
20260902085423 74 123 1.0 3.0 0.00 0.00 0.00 95 1017.0
20260902085324 74 127 1.0 3.0 0.00 0.00 0.00 95 1016.9
20260902085202 74 125 1.0 3.0 0.00 0.00 0.00 95 1017.1
20260902085103 74 126 1.0 3.0 0.00 0.00 0.00 95 1017.0
20260902085002 74 126 1.0 3.0 0.00 0.00 0.00 95 1017.0
20260902084902 74 127 1.0 3.0 0.00 0.00 0.00 95 1017.0
20260902084803 74 128 1.0 3.0 0.00 0.00 0.00 95 1017.0
20260902084703 74 128 1.0 3.0 0.00 0.00 0.00 95 1017.0
20260902084603 74 127 1.0 3.0 0.00 0.00 0.00 95 1017.0
20260902084502 74 128 1.0 3.0 0.00 0.00 0.00 95 1017.0
20260902084424 74 128 1.0 3.0 0.00 0.00 0.00 95 1017.0
20260902084302 74 122 1.0 3.0 0.00 0.00 0.00 95 1017.0
20260902084202 74 119 0.0 3.0 0.00 0.00 0.00 95 1016.9
20260902084103 74 118 0.0 3.0 0.00 0.00 0.00 95 1016.9
20260902084002 74 118 0.0 3.0 0.00 0.00 0.00 95 1016.8
20260902083924 74 119 0.0 3.0 0.00 0.00 0.00 95 1016.9
20260902083803 74 116 0.0 2.0 0.00 0.00 0.00 95 1016.8
20260902083703 74 119 0.0 3.0 0.00 0.00 0.00 95 1016.9
20260902083602 74 120 0.0 3.0 0.00 0.00 0.00 95 1016.8
20260902083502 74 117 0.0 3.0 0.00 0.00 0.00 95 1016.9
20260902083403 74 118 0.0 3.0 0.00 0.00 0.00 95 1016.8
20260902083302 74 119 0.0 3.0 0.00 0.00 0.00 95 1016.9
20260902083223 74 125 0.0 3.0 0.00 0.00 0.00 95 1017.0
20260902083125 74 125 0.0 3.0 0.00 0.00 0.00 95 1016.9
20260902083002 74 125 0.0 3.0 0.00 0.00 0.00 95 1016.9
20260902082923 74 126 0.0 3.0 0.00 0.00 0.00 95 1016.7
20260902082802 74 122 0.0 3.0 0.00 0.00 0.00 95 1016.9
20260902082702 74 118 0.0 2.0 0.00 0.00 0.00 95 1016.7
20260902082602 74 118 0.0 2.0 0.00 0.00 0.00 95 1016.8
20260902082502 74 118 0.0 2.0 0.00 0.00 0.00 95 1016.8
20260902082402 74 119 0.0 2.0 0.00 0.00 0.00 95 1016.8
20260902082308 74 119 0.0 2.0 0.00 0.00 0.00 95 1016.8
20260902082203 74 119 0.0 2.0 0.00 0.00 0.00 95 1016.8
20260902082102 74 118 0.0 2.0 0.00 0.00 0.00 95 1016.8
20260902082002 74 121 0.0 3.0 0.00 0.00 0.00 95 1016.8
20260902081903 74 121 0.0 3.0 0.00 0.00 0.00 95 1017.0
20260902081823 74 123 0.0 3.0 0.00 0.00 0.00 95 1017.0
20260902081723 74 122 0.0 3.0 0.00 0.00 0.00 95 1017.0
20260902081603 74 122 0.0 3.0 0.00 0.00 0.00 95 1017.0
20260902081502 74 122 0.0 3.0 0.00 0.00 0.00 95 1016.8
20260902081402 74 121 0.0 3.0 0.00 0.00 0.00 95 1016.9
20260902081325 74 122 1.0 3.0 0.00 0.00 0.00 95 1016.7
20260902081203 74 120 1.0 3.0 0.00 0.00 0.00 95 1016.9
20260902081123 74 120 1.0 3.0 0.00 0.00 0.00 95 1016.9
20260902081025 74 121 1.0 3.0 0.00 0.00 0.00 95 1016.7
20260902080902 74 118 0.0 3.0 0.00 0.00 0.00 94 1016.8
20260902080802 74 116 0.0 3.0 0.00 0.00 0.00 94 1016.7
20260902080702 74 116 0.0 3.0 0.00 0.00 0.00 94 1016.7
20260902080603 74 116 0.0 3.0 0.00 0.00 0.00 94 1016.9
20260902080502 74 116 0.0 3.0 0.00 0.00 0.00 94 1016.8
20260902080402 74 117 0.0 3.0 0.00 0.00 0.00 94 1016.8
20260902080302 74 118 0.0 2.0 0.00 0.00 0.00 94 1017.0
20260902080203 74 115 0.0 2.0 0.00 0.00 0.00 94 1016.8
20260902080103 74 116 0.0 2.0 0.00 0.00 0.00 94 1016.7
20260902080002 74 117 0.0 2.0 0.00 0.00 0.00 94 1016.8
20260902075902 74 119 0.0 2.0 0.00 0.00 0.00 94 1016.7
20260902075802 74 119 0.0 2.0 0.00 0.00 0.00 94 1016.9
20260902075724 74 119 0.0 2.0 0.00 0.00 0.00 94 1016.8
20260902075602 74 119 0.0 2.0 0.00 0.00 0.00 94 1016.9
20260902075502 74 117 0.0 2.0 0.00 0.00 0.00 94 1016.5
20260902075402 74 116 0.0 1.0 0.00 0.00 0.00 94 1016.7
20260902075306 73 116 0.0 1.0 0.00 0.00 0.00 94 1016.5
20260902075203 73 116 0.0 1.0 0.00 0.00 0.00 94 1016.7
20260902075123 73 116 0.0 1.0 0.00 0.00 0.00 94 1016.8
20260902075002 73 114 0.0 1.0 0.00 0.00 0.00 94 1016.7
20260902074903 73 114 0.0 1.0 0.00 0.00 0.00 94 1016.7
20260902074802 73 114 0.0 1.0 0.00 0.00 0.00 94 1016.7
20260902074702 73 114 0.0 1.0 0.00 0.00 0.00 94 1016.8
20260902074602 73 114 0.0 1.0 0.00 0.00 0.00 94 1016.8
20260902074503 73 118 0.0 1.0 0.00 0.00 0.00 94 1016.6
20260902074402 73 0 0.0 0.0 0.00 0.00 0.00 94 1016.7
20260902074302 73 0 0.0 0.0 0.00 0.00 0.00 94 1016.9
20260902074202 73 0 0.0 0.0 0.00 0.00 0.00 94 1016.8
20260902074102 73 0 0.0 0.0 0.00 0.00 0.00 94 1016.8
20260902074003 73 0 0.0 0.0 0.00 0.00 0.00 94 1016.9
20260902073902 73 0 0.0 0.0 0.00 0.00 0.00 94 1016.7
20260902073803 73 0 0.0 0.0 0.00 0.00 0.00 94 1016.7
20260902073703 73 0 0.0 0.0 0.00 0.00 0.00 93 1016.7
20260902073602 73 0 0.0 0.0 0.00 0.00 0.00 93 1016.9
20260902073502 73 0 0.0 0.0 0.00 0.00 0.00 93 1016.8
20260902073403 73 0 0.0 0.0 0.00 0.00 0.00 93 1016.8
20260902073302 73 0 0.0 0.0 0.00 0.00 0.00 93 1016.9
20260902073202 73 0 0.0 0.0 0.00 0.00 0.00 93 1016.7
20260902073102 73 0 0.0 0.0 0.00 0.00 0.00 93 1016.7
20260902073002 73 0 0.0 0.0 0.00 0.00 0.00 93 1016.8
20260902072902 73 0 0.0 0.0 0.00 0.00 0.00 93 1016.7
20260902072802 73 0 0.0 0.0 0.00 0.00 0.00 93 1016.8
20260902072703 73 0 0.0 0.0 0.00 0.00 0.00 93 1016.8
20260902072623 73 0 0.0 0.0 0.00 0.00 0.00 93 1016.8
20260902072503 73 0 0.0 0.0 0.00 0.00 0.00 93 1017.0
20260902072402 73 0 0.0 0.0 0.00 0.00 0.00 93 1016.9
20260902072308 73 0 0.0 0.0 0.00 0.00 0.00 93 1017.0
20260902072203 73 0 0.0 0.0 0.00 0.00 0.00 93 1016.9
20260902072103 73 0 0.0 0.0 0.00 0.00 0.00 93 1016.8
20260902072023 73 0 0.0 0.0 0.00 0.00 0.00 93 1017.0
20260902071903 73 0 0.0 0.0 0.00 0.00 0.00 93 1016.9
20260902071802 73 0 0.0 0.0 0.00 0.00 0.00 93 1017.0
20260902071703 73 0 0.0 0.0 0.00 0.00 0.00 93 1016.8
20260902071602 73 0 0.0 0.0 0.00 0.00 0.00 93 1017.0
20260902071523 73 0 0.0 0.0 0.00 0.00 0.00 93 1017.0
20260902071403 73 0 0.0 0.0 0.00 0.00 0.00 93 1016.9
20260902071302 73 0 0.0 0.0 0.00 0.00 0.00 93 1016.9
20260902071224 73 0 0.0 0.0 0.00 0.00 0.00 93 1016.9
20260902071103 73 0 0.0 0.0 0.00 0.00 0.00 92 1016.9
20260902071023 73 0 0.0 0.0 0.00 0.00 0.00 92 1016.9
20260902070903 73 0 0.0 0.0 0.00 0.00 0.00 92 1016.8
20260902070823 73 0 0.0 0.0 0.00 0.00 0.00 92 1017.0
20260902070703 73 0 0.0 0.0 0.00 0.00 0.00 92 1016.9
20260902070603 73 127 0.0 2.0 0.00 0.00 0.00 92 1017.1
20260902070502 73 130 0.0 2.0 0.00 0.00 0.00 92 1017.0
20260902070403 73 133 0.0 2.0 0.00 0.00 0.00 92 1016.9
20260902070303 73 133 0.0 2.0 0.00 0.00 0.00 92 1016.8
20260902070202 73 131 0.0 2.0 0.00 0.00 0.00 92 1016.9
20260902070005 73 129 1.0 2.0 0.00 0.00 0.00 92 1017.0
20260902065902 73 125 1.0 2.0 0.00 0.00 0.00 92 1017.0
20260902065803 73 125 1.0 2.0 0.00 0.00 0.00 92 1017.1
20260902065703 73 125 1.0 2.0 0.00 0.00 0.00 92 1016.9
20260902065602 73 124 1.0 2.0 0.00 0.00 0.00 92 1016.9
20260902065524 73 122 1.0 2.0 0.00 0.00 0.00 92 1016.9
20260902065424 73 119 1.0 2.0 0.00 0.00 0.00 92 1016.9
20260902065306 73 119 1.0 2.0 0.00 0.00 0.00 92 1016.9
20260902065202 73 120 1.0 2.0 0.00 0.00 0.00 92 1016.7
20260902065124 73 121 1.0 2.0 0.00 0.00 0.00 92 1016.9
20260902065003 73 119 1.0 2.0 0.00 0.00 0.00 92 1016.8
20260902064902 73 121 0.0 2.0 0.00 0.00 0.00 93 1016.9
20260902064803 73 121 0.0 2.0 0.00 0.00 0.00 93 1016.9
20260902064702 73 121 0.0 2.0 0.00 0.00 0.00 93 1017.0
20260902064623 73 122 0.0 2.0 0.00 0.00 0.00 93 1017.1
20260902064502 73 125 0.0 2.0 0.00 0.00 0.00 93 1017.1
20260902064402 73 122 0.0 2.0 0.00 0.00 0.00 93 1017.0
20260902064303 73 123 0.0 2.0 0.00 0.00 0.00 93 1017.1
20260902064202 73 118 0.0 2.0 0.00 0.00 0.00 93 1017.0
20260902064102 73 118 0.0 2.0 0.00 0.00 0.00 94 1017.2
20260902064023 73 118 0.0 2.0 0.00 0.00 0.00 94 1017.2
20260902063904 72 118 0.0 2.0 0.00 0.00 0.00 94 1017.2
20260902063803 72 0 0.0 0.0 0.00 0.00 0.00 94 1017.3
20260902063703 72 0 0.0 0.0 0.00 0.00 0.00 93 1017.1
20260902063603 72 0 0.0 0.0 0.00 0.00 0.00 93 1017.1
20260902063502 73 0 0.0 0.0 0.00 0.00 0.00 93 1017.1
20260902063423 73 0 0.0 0.0 0.00 0.00 0.00 93 1017.2
20260902063302 73 0 0.0 0.0 0.00 0.00 0.00 93 1017.1
20260902063202 72 0 0.0 0.0 0.00 0.00 0.00 94 1017.2
20260902063102 72 0 0.0 0.0 0.00 0.00 0.00 94 1017.1
20260902063003 72 0 0.0 0.0 0.00 0.00 0.00 94 1017.2
20260902062902 72 0 0.0 0.0 0.00 0.00 0.00 94 1017.1
20260902062823 72 0 0.0 0.0 0.00 0.00 0.00 94 1017.2
20260902062702 73 0 0.0 0.0 0.00 0.00 0.00 93 1017.1
20260902062602 73 0 0.0 0.0 0.00 0.00 0.00 93 1017.2
20260902062524 73 0 0.0 0.0 0.00 0.00 0.00 94 1017.1
20260902062402 73 0 0.0 0.0 0.00 0.00 0.00 94 1017.2
20260902062305 73 0 0.0 0.0 0.00 0.00 0.00 94 1017.2
20260902062203 73 0 0.0 0.0 0.00 0.00 0.00 94 1017.0
20260902062104 73 0 0.0 0.0 0.00 0.00 0.00 94 1017.2
20260902062023 73 0 0.0 0.0 0.00 0.00 0.00 94 1017.3
20260902061925 72 0 0.0 0.0 0.00 0.00 0.00 94 1017.2
20260902061802 72 0 0.0 0.0 0.00 0.00 0.00 94 1017.3
20260902061702 72 0 0.0 0.0 0.00 0.00 0.00 94 1017.1
20260902061602 72 0 0.0 0.0 0.00 0.00 0.00 94 1017.2
20260902061523 72 0 0.0 0.0 0.00 0.00 0.00 94 1017.2
20260902061424 72 0 0.0 0.0 0.00 0.00 0.00 94 1017.2
20260902061302 72 0 0.0 0.0 0.00 0.00 0.00 94 1017.2
20260902061202 72 0 0.0 0.0 0.00 0.00 0.00 94 1017.1
20260902061123 72 0 0.0 0.0 0.00 0.00 0.00 94 1017.2
20260902061023 72 0 0.0 0.0 0.00 0.00 0.00 94 1017.2
20260902060902 72 0 0.0 0.0 0.00 0.00 0.00 94 1017.2
20260902060802 72 0 0.0 0.0 0.00 0.00 0.00 94 1017.4
20260902060723 72 0 0.0 0.0 0.00 0.00 0.00 94 1017.4
20260902060624 72 0 0.0 0.0 0.00 0.00 0.00 94 1017.2
20260902060502 72 0 0.0 0.0 0.00 0.00 0.00 94 1017.2
20260902060402 72 0 0.0 0.0 0.00 0.00 0.00 94 1017.3
20260902060302 72 0 0.0 0.0 0.00 0.00 0.00 94 1017.4
20260902060202 72 0 0.0 0.0 0.00 0.00 0.00 94 1017.1
20260902060002 72 0 0.0 0.0 0.00 0.00 0.00 94 1017.1
20260902055902 72 0 0.0 0.0 0.00 0.00 0.00 94 1017.1
20260902055802 72 0 0.0 0.0 0.00 0.00 0.00 94 1017.0
20260902055702 72 0 0.0 0.0 0.00 0.00 0.00 94 1017.1
20260902055602 72 0 0.0 0.0 0.00 0.00 0.00 94 1017.0
20260902055503 72 0 0.0 0.0 0.00 0.00 0.00 94 1017.2
20260902055402 72 0 0.0 0.0 0.00 0.00 0.00 94 1017.3
20260902055306 72 0 0.0 0.0 0.00 0.00 0.00 94 1017.2
20260902055224 72 0 0.0 0.0 0.00 0.00 0.00 94 1017.3
20260902055102 72 0 0.0 0.0 0.00 0.00 0.00 94 1017.1
20260902055003 72 0 0.0 0.0 0.00 0.00 0.00 93 1017.2
20260902054902 72 0 0.0 0.0 0.00 0.00 0.00 94 1017.2
20260902054802 72 0 0.0 0.0 0.00 0.00 0.00 93 1017.2
20260902054703 72 0 0.0 0.0 0.00 0.00 0.00 93 1017.2
20260902054602 72 0 0.0 0.0 0.00 0.00 0.00 93 1017.1
20260902054502 72 0 0.0 0.0 0.00 0.00 0.00 93 1017.1
20260902054403 72 0 0.0 0.0 0.00 0.00 0.00 93 1017.3
20260902054303 72 0 0.0 0.0 0.00 0.00 0.00 93 1017.3
20260902054203 72 0 0.0 0.0 0.00 0.00 0.00 93 1017.1
20260902054103 72 0 0.0 0.0 0.00 0.00 0.00 93 1017.1
20260902054002 72 0 0.0 0.0 0.00 0.00 0.00 93 1017.1
20260902053902 72 0 0.0 0.0 0.00 0.00 0.00 93 1017.2
20260902053802 72 0 0.0 0.0 0.00 0.00 0.00 93 1016.9
20260902053703 72 0 0.0 0.0 0.00 0.00 0.00 93 1017.0
20260902053604 72 0 0.0 0.0 0.00 0.00 0.00 93 1017.0
20260902053502 72 0 0.0 0.0 0.00 0.00 0.00 93 1017.0
20260902053402 72 0 0.0 0.0 0.00 0.00 0.00 93 1017.1
20260902053302 72 0 0.0 0.0 0.00 0.00 0.00 93 1017.1
20260902053223 72 0 0.0 0.0 0.00 0.00 0.00 93 1017.1
20260902053102 72 0 0.0 0.0 0.00 0.00 0.00 93 1017.2
20260902053024 72 0 0.0 0.0 0.00 0.00 0.00 93 1017.1
20260902052903 72 0 0.0 0.0 0.00 0.00 0.00 93 1017.0
20260902052803 72 0 0.0 0.0 0.00 0.00 0.00 93 1017.1
20260902052702 72 0 0.0 0.0 0.00 0.00 0.00 93 1017.1
20260902052603 72 0 0.0 0.0 0.00 0.00 0.00 93 1017.1
20260902052523 72 0 0.0 0.0 0.00 0.00 0.00 93 1017.1
20260902052403 72 0 0.0 0.0 0.00 0.00 0.00 93 1016.9
20260902052306 72 0 0.0 0.0 0.00 0.00 0.00 93 1017.0
20260902052203 72 0 0.0 0.0 0.00 0.00 0.00 93 1017.1
20260902052102 72 0 0.0 0.0 0.00 0.00 0.00 93 1017.0
20260902052002 72 0 0.0 0.0 0.00 0.00 0.00 93 1017.1
20260902051902 72 0 0.0 0.0 0.00 0.00 0.00 93 1017.0
20260902051803 72 0 0.0 0.0 0.00 0.00 0.00 93 1017.0
20260902051702 72 0 0.0 0.0 0.00 0.00 0.00 93 1017.2
20260902051603 72 0 0.0 0.0 0.00 0.00 0.00 93 1017.2
20260902051502 73 0 0.0 0.0 0.00 0.00 0.00 93 1017.1
20260902051403 73 0 0.0 0.0 0.00 0.00 0.00 93 1017.2
20260902051303 73 0 0.0 0.0 0.00 0.00 0.00 93 1017.0
20260902051225 73 0 0.0 0.0 0.00 0.00 0.00 93 1017.1
20260902051123 72 0 0.0 0.0 0.00 0.00 0.00 93 1017.1
20260902051002 72 0 0.0 0.0 0.00 0.00 0.00 93 1017.0
20260902050903 72 0 0.0 0.0 0.00 0.00 0.00 93 1017.0
20260902050802 72 0 0.0 0.0 0.00 0.00 0.00 93 1017.0
20260902050703 72 0 0.0 0.0 0.00 0.00 0.00 93 1017.0
20260902050602 72 0 0.0 0.0 0.00 0.00 0.00 93 1017.1
20260902050504 72 0 0.0 0.0 0.00 0.00 0.00 93 1016.9
20260902050423 72 0 0.0 0.0 0.00 0.00 0.00 93 1016.9
20260902050303 72 0 0.0 0.0 0.00 0.00 0.00 92 1017.0
20260902050202 72 0 0.0 0.0 0.00 0.00 0.00 92 1017.1
20260902050024 72 0 0.0 0.0 0.00 0.00 0.00 92 1016.8
20260902045902 72 0 0.0 0.0 0.00 0.00 0.00 92 1016.9
20260902045824 72 0 0.0 0.0 0.00 0.00 0.00 92 1016.9
20260902045702 72 0 0.0 0.0 0.00 0.00 0.00 92 1017.0
20260902045603 72 0 0.0 0.0 0.00 0.00 0.00 92 1017.0
20260902045502 72 0 0.0 0.0 0.00 0.00 0.00 92 1017.0
20260902045424 72 0 0.0 0.0 0.00 0.00 0.00 92 1016.9
20260902045306 72 0 0.0 0.0 0.00 0.00 0.00 92 1016.9
20260902045224 72 0 0.0 0.0 0.00 0.00 0.00 92 1016.9
20260902045123 72 0 0.0 0.0 0.00 0.00 0.00 92 1017.0
20260902045002 73 0 0.0 0.0 0.00 0.00 0.00 92 1017.0
20260902044902 73 0 0.0 0.0 0.00 0.00 0.00 92 1016.9
20260902044802 73 0 0.0 0.0 0.00 0.00 0.00 92 1017.0
20260902044702 73 0 0.0 0.0 0.00 0.00 0.00 92 1017.0
20260902044602 73 0 0.0 0.0 0.00 0.00 0.00 92 1017.0
20260902044524 73 0 0.0 0.0 0.00 0.00 0.00 92 1016.9
20260902044402 73 0 0.0 0.0 0.00 0.00 0.00 92 1016.9
20260902044302 73 0 0.0 0.0 0.00 0.00 0.00 91 1016.8
20260902044203 73 0 0.0 0.0 0.00 0.00 0.00 92 1016.7
20260902044103 73 0 0.0 0.0 0.00 0.00 0.00 92 1016.9
20260902044002 73 0 0.0 0.0 0.00 0.00 0.00 92 1016.8
20260902043903 73 0 0.0 0.0 0.00 0.00 0.00 92 1016.9
20260902043803 73 0 0.0 0.0 0.00 0.00 0.00 92 1016.8
20260902043702 73 0 0.0 0.0 0.00 0.00 0.00 92 1016.9
20260902043604 73 0 0.0 0.0 0.00 0.00 0.00 92 1016.8
20260902043502 73 0 0.0 0.0 0.00 0.00 0.00 91 1016.8
20260902043403 73 0 0.0 0.0 0.00 0.00 0.00 91 1016.8
20260902043303 73 0 0.0 0.0 0.00 0.00 0.00 91 1016.8
20260902043202 73 0 0.0 0.0 0.00 0.00 0.00 91 1016.8
20260902043103 73 0 0.0 0.0 0.00 0.00 0.00 91 1016.8
20260902043002 73 0 0.0 0.0 0.00 0.00 0.00 91 1016.8
20260902042903 73 0 0.0 0.0 0.00 0.00 0.00 91 1016.7
20260902042823 73 0 0.0 0.0 0.00 0.00 0.00 91 1016.9
20260902042702 73 0 0.0 0.0 0.00 0.00 0.00 91 1016.7
20260902042604 73 0 0.0 0.0 0.00 0.00 0.00 91 1016.8
20260902042503 73 0 0.0 0.0 0.00 0.00 0.00 91 1016.8
20260902042402 73 123 0.0 1.0 0.00 0.00 0.00 91 1016.7
20260902042308 73 123 0.0 1.0 0.00 0.00 0.00 91 1016.8
20260902042204 73 123 0.0 1.0 0.00 0.00 0.00 91 1016.9
20260902042102 73 123 0.0 1.0 0.00 0.00 0.00 91 1016.7
20260902042003 73 123 0.0 1.0 0.00 0.00 0.00 91 1016.9
20260902041902 73 123 0.0 1.0 0.00 0.00 0.00 91 1016.7
20260902041823 73 123 0.0 1.0 0.00 0.00 0.00 91 1016.7
20260902041703 74 123 0.0 1.0 0.00 0.00 0.00 91 1016.5
20260902041602 74 123 0.0 1.0 0.00 0.00 0.00 91 1016.7
20260902041502 74 123 0.0 1.0 0.00 0.00 0.00 91 1016.7
20260902041403 74 0 0.0 0.0 0.00 0.00 0.00 90 1016.8
20260902041303 74 0 0.0 0.0 0.00 0.00 0.00 90 1016.8
20260902041204 74 0 0.0 0.0 0.00 0.00 0.00 90 1016.9
20260902041103 74 0 0.0 0.0 0.00 0.00 0.00 90 1016.8
20260902041002 74 0 0.0 0.0 0.00 0.00 0.00 90 1016.8
20260902040903 74 0 0.0 0.0 0.00 0.00 0.00 90 1016.7
20260902040802 74 0 0.0 0.0 0.00 0.00 0.00 90 1016.7
20260902040702 74 0 0.0 0.0 0.00 0.00 0.00 90 1016.7
20260902040603 74 0 0.0 0.0 0.00 0.00 0.00 90 1016.8
20260902040503 74 0 0.0 0.0 0.00 0.00 0.00 90 1016.8
20260902040402 74 0 0.0 0.0 0.00 0.00 0.00 90 1016.8
20260902040303 74 0 0.0 0.0 0.00 0.00 0.00 90 1017.0
20260902040224 74 0 0.0 0.0 0.00 0.00 0.00 90 1016.9
20260902040103 74 118 0.0 1.0 0.00 0.00 0.00 90 1016.8
20260902040004 74 126 0.0 2.0 0.00 0.00 0.00 90 1016.7
20260902035902 74 133 0.0 2.0 0.00 0.00 0.00 89 1016.7
20260902035802 74 133 0.0 2.0 0.00 0.00 0.00 89 1016.8
20260902035702 75 133 0.0 2.0 0.00 0.00 0.00 89 1016.9
20260902035602 75 133 0.0 2.0 0.00 0.00 0.00 88 1016.8
20260902035502 75 133 0.0 2.0 0.00 0.00 0.00 88 1016.7
20260902035403 75 133 0.0 2.0 0.00 0.00 0.00 88 1016.8
20260902035305 75 133 0.0 2.0 0.00 0.00 0.00 88 1016.9
20260902035203 75 130 0.0 2.0 0.00 0.00 0.00 88 1016.7
20260902035103 75 133 0.0 2.0 0.00 0.00 0.00 88 1016.8
20260902035002 75 132 0.0 2.0 0.00 0.00 0.00 89 1016.7
20260902034902 75 120 0.0 1.0 0.00 0.00 0.00 89 1016.7
20260902034803 75 116 0.0 1.0 0.00 0.00 0.00 89 1016.9
20260902034703 75 116 0.0 1.0 0.00 0.00 0.00 89 1016.9
20260902034602 75 116 0.0 1.0 0.00 0.00 0.00 88 1016.6
20260902034502 75 115 0.0 1.0 0.00 0.00 0.00 88 1016.8
20260902034403 75 115 0.0 1.0 0.00 0.00 0.00 88 1016.9
20260902034302 75 116 0.0 1.0 0.00 0.00 0.00 88 1016.8
20260902034203 74 116 0.0 1.0 0.00 0.00 0.00 88 1016.9
20260902034103 74 114 0.0 1.0 0.00 0.00 0.00 89 1016.7
20260902034025 74 114 0.0 1.0 0.00 0.00 0.00 89 1016.8
20260902033903 74 120 0.0 1.0 0.00 0.00 0.00 89 1016.8
20260902033802 74 124 0.0 3.0 0.00 0.00 0.00 88 1016.8
20260902033702 74 126 1.0 3.0 0.00 0.00 0.00 88 1016.7
20260902033603 74 126 1.0 3.0 0.00 0.00 0.00 88 1016.8
20260902033503 74 128 0.0 3.0 0.00 0.00 0.00 88 1016.8
20260902033402 74 128 0.0 3.0 0.00 0.00 0.00 88 1016.8
20260902033302 75 129 0.0 3.0 0.00 0.00 0.00 88 1016.8
20260902033204 75 128 1.0 3.0 0.00 0.00 0.00 88 1017.0
20260902033102 74 129 1.0 3.0 0.00 0.00 0.00 88 1016.7
20260902033002 74 130 1.0 3.0 0.00 0.00 0.00 88 1016.8
20260902032904 74 129 0.0 3.0 0.00 0.00 0.00 88 1016.9
20260902032803 74 129 0.0 3.0 0.00 0.00 0.00 88 1016.8
20260902032705 74 127 0.0 1.0 0.00 0.00 0.00 88 1016.7
20260902032602 74 127 0.0 1.0 0.00 0.00 0.00 88 1016.7
20260902032503 74 127 0.0 1.0 0.00 0.00 0.00 88 1016.8
20260902032402 74 131 0.0 1.0 0.00 0.00 0.00 88 1016.8
20260902032305 74 129 0.0 1.0 0.00 0.00 0.00 88 1016.7
20260902032202 74 136 0.0 1.0 0.00 0.00 0.00 88 1016.8
20260902032123 74 0 0.0 0.0 0.00 0.00 0.00 88 1016.6
20260902032003 74 0 0.0 0.0 0.00 0.00 0.00 88 1016.6
20260902031902 74 0 0.0 0.0 0.00 0.00 0.00 88 1016.6
20260902031802 74 0 0.0 0.0 0.00 0.00 0.00 88 1016.7
20260902031723 74 0 0.0 0.0 0.00 0.00 0.00 88 1016.5
20260902031602 74 0 0.0 0.0 0.00 0.00 0.00 88 1016.6
20260902031502 74 0 0.0 0.0 0.00 0.00 0.00 88 1016.7
20260902031403 74 0 0.0 0.0 0.00 0.00 0.00 88 1016.7
20260902031302 74 0 0.0 0.0 0.00 0.00 0.00 88 1016.6
20260902031203 74 0 0.0 0.0 0.00 0.00 0.00 88 1016.6
20260902031103 74 0 0.0 0.0 0.00 0.00 0.00 88 1016.7
20260902031002 74 0 0.0 0.0 0.00 0.00 0.00 88 1016.6
20260902030903 74 0 0.0 0.0 0.00 0.00 0.00 87 1016.6
20260902030803 74 0 0.0 0.0 0.00 0.00 0.00 87 1016.8
20260902030705 74 0 0.0 0.0 0.00 0.00 0.00 87 1016.7
20260902030603 74 0 0.0 0.0 0.00 0.00 0.00 87 1016.5
20260902030525 74 0 0.0 0.0 0.00 0.00 0.00 87 1016.7
20260902030402 74 0 0.0 0.0 0.00 0.00 0.00 87 1016.7
20260902030302 74 0 0.0 0.0 0.00 0.00 0.00 87 1016.7
20260902030203 74 0 0.0 0.0 0.00 0.00 0.00 87 1016.7
20260902030002 74 0 0.0 0.0 0.00 0.00 0.00 88 1016.6
20260902025903 74 0 0.0 0.0 0.00 0.00 0.00 88 1016.7
20260902025823 74 0 0.0 0.0 0.00 0.00 0.00 87 1016.8
20260902025702 74 0 0.0 0.0 0.00 0.00 0.00 87 1016.7
20260902025623 74 0 0.0 0.0 0.00 0.00 0.00 87 1016.8
20260902025504 74 0 0.0 0.0 0.00 0.00 0.00 87 1016.8
20260902025402 74 0 0.0 0.0 0.00 0.00 0.00 87 1016.7
20260902025306 74 0 0.0 0.0 0.00 0.00 0.00 87 1016.8
20260902025202 74 117 0.0 1.0 0.00 0.00 0.00 87 1016.4
20260902025102 74 118 0.0 1.0 0.00 0.00 0.00 87 1016.7
20260902025002 74 118 0.0 1.0 0.00 0.00 0.00 87 1016.7
20260902024903 74 118 0.0 1.0 0.00 0.00 0.00 87 1016.6
20260902024803 74 118 0.0 1.0 0.00 0.00 0.00 87 1016.5
20260902024702 74 118 0.0 1.0 0.00 0.00 0.00 87 1016.6
20260902024623 74 118 0.0 1.0 0.00 0.00 0.00 87 1016.8
20260902024502 74 118 0.0 1.0 0.00 0.00 0.00 87 1016.5
20260902024402 74 118 0.0 1.0 0.00 0.00 0.00 87 1016.6
20260902024304 75 118 0.0 1.0 0.00 0.00 0.00 87 1016.5
20260902024202 75 118 0.0 1.0 0.00 0.00 0.00 87 1016.6
20260902024103 75 0 0.0 0.0 0.00 0.00 0.00 87 1016.6
20260902024002 75 0 0.0 0.0 0.00 0.00 0.00 87 1016.6
20260902023903 75 0 0.0 0.0 0.00 0.00 0.00 86 1016.6
20260902023823 75 0 0.0 0.0 0.00 0.00 0.00 86 1016.6
20260902023703 75 0 0.0 0.0 0.00 0.00 0.00 86 1016.6
20260902023602 75 0 0.0 0.0 0.00 0.00 0.00 87 1016.5
20260902023503 75 0 0.0 0.0 0.00 0.00 0.00 86 1016.7
20260902023403 75 0 0.0 0.0 0.00 0.00 0.00 86 1016.6
20260902023323 75 0 0.0 0.0 0.00 0.00 0.00 87 1016.6
20260902023202 74 0 0.0 0.0 0.00 0.00 0.00 87 1016.6
20260902023102 74 0 0.0 0.0 0.00 0.00 0.00 87 1016.5
20260902023003 74 0 0.0 0.0 0.00 0.00 0.00 87 1016.6
20260902022902 74 0 0.0 0.0 0.00 0.00 0.00 87 1016.4
20260902022803 74 0 0.0 0.0 0.00 0.00 0.00 87 1016.4
20260902022703 74 0 0.0 0.0 0.00 0.00 0.00 87 1016.5
20260902022602 74 0 0.0 0.0 0.00 0.00 0.00 87 1016.4
20260902022523 74 0 0.0 0.0 0.00 0.00 0.00 88 1016.5
20260902022404 74 0 0.0 0.0 0.00 0.00 0.00 87 1016.3
20260902022323 74 0 0.0 0.0 0.00 0.00 0.00 87 1016.4
20260902022223 74 0 0.0 0.0 0.00 0.00 0.00 87 1016.3
20260902022103 75 0 0.0 0.0 0.00 0.00 0.00 87 1016.5
20260902022002 75 0 0.0 0.0 0.00 0.00 0.00 87 1016.4
20260902021902 75 0 0.0 0.0 0.00 0.00 0.00 87 1016.5
20260902021802 75 0 0.0 0.0 0.00 0.00 0.00 87 1016.4
20260902021702 75 0 0.0 0.0 0.00 0.00 0.00 87 1016.4
20260902021603 75 113 0.0 1.0 0.00 0.00 0.00 87 1016.4
20260902021502 75 113 0.0 1.0 0.00 0.00 0.00 86 1016.3
20260902021403 75 113 0.0 1.0 0.00 0.00 0.00 86 1016.4
20260902021304 75 113 0.0 1.0 0.00 0.00 0.00 86 1016.2
20260902021202 75 113 0.0 1.0 0.00 0.00 0.00 86 1016.4
20260902021103 75 113 0.0 1.0 0.00 0.00 0.00 86 1016.3
20260902021002 75 113 0.0 1.0 0.00 0.00 0.00 86 1016.3
20260902020923 75 113 0.0 1.0 0.00 0.00 0.00 86 1016.4
20260902020802 75 113 0.0 1.0 0.00 0.00 0.00 86 1016.4
20260902020703 75 113 0.0 1.0 0.00 0.00 0.00 86 1016.4
20260902020602 75 0 0.0 0.0 0.00 0.00 0.00 86 1016.4
20260902020503 75 0 0.0 0.0 0.00 0.00 0.00 86 1016.2
20260902020404 75 0 0.0 0.0 0.00 0.00 0.00 86 1016.2
20260902020304 75 0 0.0 0.0 0.00 0.00 0.00 86 1016.4
20260902020223 75 0 0.0 0.0 0.00 0.00 0.00 86 1016.4
20260902020002 75 0 0.0 0.0 0.00 0.00 0.00 86 1016.4
20260902015902 75 0 0.0 0.0 0.00 0.00 0.00 85 1016.4
20260902015802 76 0 0.0 0.0 0.00 0.00 0.00 85 1016.3
20260902015703 76 0 0.0 0.0 0.00 0.00 0.00 85 1016.4
20260902015604 76 0 0.0 0.0 0.00 0.00 0.00 85 1016.5
20260902015502 76 123 0.0 1.0 0.00 0.00 0.00 85 1016.4
20260902015403 76 121 0.0 1.0 0.00 0.00 0.00 84 1016.3
20260902015305 76 121 0.0 1.0 0.00 0.00 0.00 84 1016.5
20260902015202 76 121 0.0 1.0 0.00 0.00 0.00 84 1016.3
20260902015124 76 121 0.0 1.0 0.00 0.00 0.00 84 1016.4
20260902015003 76 121 0.0 1.0 0.00 0.00 0.00 84 1016.4
20260902014902 76 121 0.0 1.0 0.00 0.00 0.00 84 1016.4
20260902014802 76 121 0.0 1.0 0.00 0.00 0.00 83 1016.3
20260902014702 76 121 0.0 1.0 0.00 0.00 0.00 83 1016.5
20260902014623 76 121 0.0 1.0 0.00 0.00 0.00 83 1016.5
20260902014502 76 118 0.0 1.0 0.00 0.00 0.00 83 1016.4
20260902014402 76 0 0.0 0.0 0.00 0.00 0.00 83 1016.4
20260902014302 76 0 0.0 0.0 0.00 0.00 0.00 83 1016.4
20260902014202 76 0 0.0 0.0 0.00 0.00 0.00 83 1016.5
20260902014103 76 0 0.0 0.0 0.00 0.00 0.00 83 1016.4
20260902014002 77 0 0.0 0.0 0.00 0.00 0.00 83 1016.3
20260902013902 77 0 0.0 0.0 0.00 0.00 0.00 83 1016.5
20260902013825 77 0 0.0 0.0 0.00 0.00 0.00 82 1016.5
20260902013702 77 0 0.0 0.0 0.00 0.00 0.00 82 1016.6
20260902013602 77 0 0.0 0.0 0.00 0.00 0.00 81 1016.6
20260902013503 77 0 0.0 0.0 0.00 0.00 0.00 81 1016.4
20260902013402 77 0 0.0 0.0 0.00 0.00 0.00 81 1016.4
20260902013303 77 0 0.0 0.0 0.00 0.00 0.00 81 1016.5
20260902013223 77 0 0.0 0.0 0.00 0.00 0.00 81 1016.2
20260902013103 78 0 0.0 0.0 0.00 0.00 0.00 81 1016.4
20260902013004 78 0 0.0 0.0 0.00 0.00 0.00 80 1016.3
20260902012902 78 0 0.0 0.0 0.00 0.00 0.00 80 1016.3
20260902012824 78 0 0.0 0.0 0.00 0.00 0.00 80 1016.2
20260902012703 78 0 0.0 0.0 0.00 0.00 0.00 79 1016.3
20260902012604 78 0 0.0 0.0 0.00 0.00 0.00 78 1016.3
20260902012503 78 0 0.0 0.0 0.00 0.00 0.00 78 1016.2
20260902012402 79 145 0.0 1.0 0.00 0.00 0.00 78 1016.2
20260902012308 79 140 0.0 1.0 0.00 0.00 0.00 78 1016.5
20260902012203 79 140 0.0 1.0 0.00 0.00 0.00 77 1016.2
20260902012103 79 139 0.0 1.0 0.00 0.00 0.00 77 1016.4
20260902012003 79 141 0.0 1.0 0.00 0.00 0.00 77 1016.1
20260902011902 79 142 0.0 1.0 0.00 0.00 0.00 76 1016.4
20260902011823 79 142 0.0 1.0 0.00 0.00 0.00 76 1016.3
20260902011702 79 142 0.0 1.0 0.00 0.00 0.00 76 1016.1
20260902011603 80 142 0.0 1.0 0.00 0.00 0.00 76 1016.3
20260902011502 80 142 0.0 1.0 0.00 0.00 0.00 75 1016.2
20260902011423 80 142 0.0 1.0 0.00 0.00 0.00 75 1016.3
20260902011303 80 141 0.0 1.0 0.00 0.00 0.00 75 1016.0
20260902011202 80 143 0.0 1.0 0.00 0.00 0.00 75 1016.0
20260902011102 80 143 0.0 1.0 0.00 0.00 0.00 75 1016.3
20260902011003 80 139 0.0 1.0 0.00 0.00 0.00 75 1016.3
20260902010904 80 157 0.0 2.0 0.00 0.00 0.00 75 1016.2
20260902010803 80 149 0.0 2.0 0.00 0.00 0.00 75 1016.1
20260902010723 80 174 0.0 4.0 0.00 0.00 0.00 75 1016.1
20260902010602 80 181 0.0 4.0 0.00 0.00 0.00 75 1016.2
20260902010503 80 181 0.0 4.0 0.00 0.00 0.00 74 1016.0
20260902010403 80 181 0.0 4.0 0.00 0.00 0.00 74 1016.0
20260902010323 80 181 0.0 4.0 0.00 0.00 0.00 74 1016.0
20260902010202 80 176 0.0 4.0 0.00 0.00 0.00 74 1016.2
20260902010002 80 171 0.0 4.0 0.00 0.00 0.00 74 1016.1
20260902005902 80 168 0.0 4.0 0.00 0.00 0.00 74 1016.1
20260902005824 80 173 0.0 4.0 0.00 0.00 0.00 74 1016.1
20260902005703 80 132 0.0 2.0 0.00 0.00 0.00 75 1016.2
20260902005602 80 139 0.0 2.0 0.00 0.00 0.00 75 1016.1
20260902005503 80 139 0.0 2.0 0.00 0.00 0.00 74 1016.1
20260902005402 80 149 1.0 3.0 0.00 0.00 0.00 74 1016.3
20260902005306 81 149 1.0 3.0 0.00 0.00 0.00 74 1016.1
20260902005203 81 150 1.0 3.0 0.00 0.00 0.00 74 1016.0
20260902005124 81 152 0.0 3.0 0.00 0.00 0.00 74 1016.0
20260902005002 81 152 0.0 3.0 0.00 0.00 0.00 74 1016.2
20260902004903 81 153 0.0 3.0 0.00 0.00 0.00 74 1016.2
20260902004825 81 151 1.0 3.0 0.00 0.00 0.00 74 1016.0
20260902004702 81 168 1.0 3.0 0.00 0.00 0.00 73 1016.1
20260902004603 81 173 1.0 3.0 0.00 0.00 0.00 73 1016.2
20260902004502 81 186 1.0 3.0 0.00 0.00 0.00 73 1015.9
20260902004403 81 169 1.0 3.0 0.00 0.00 0.00 73 1015.9
20260902004302 81 154 1.0 3.0 0.00 0.00 0.00 73 1016.0
20260902004203 81 161 1.0 6.0 0.00 0.00 0.00 73 1015.9
20260902004102 81 178 1.0 6.0 0.00 0.00 0.00 73 1016.0
20260902004025 81 190 1.0 6.0 0.00 0.00 0.00 73 1016.1
20260902003904 81 188 2.0 6.0 0.00 0.00 0.00 73 1016.0
20260902003803 81 183 2.0 6.0 0.00 0.00 0.00 73 1016.0
20260902003702 81 177 2.0 6.0 0.00 0.00 0.00 73 1015.9
20260902003603 81 175 2.0 6.0 0.00 0.00 0.00 73 1015.9
20260902003504 81 171 1.0 6.0 0.00 0.00 0.00 73 1016.0
20260902003404 82 170 1.0 6.0 0.00 0.00 0.00 73 1016.0
20260902003302 82 177 1.0 6.0 0.00 0.00 0.00 73 1015.9
20260902003203 82 174 1.0 4.0 0.00 0.00 0.00 72 1016.0
20260902003102 82 177 1.0 4.0 0.00 0.00 0.00 72 1015.7
20260902003003 82 186 1.0 3.0 0.00 0.00 0.00 72 1015.6
20260902002902 82 181 1.0 3.0 0.00 0.00 0.00 72 1015.7
20260902002804 82 186 1.0 4.0 0.00 0.00 0.00 72 1015.7
20260902002703 82 193 1.0 4.0 0.00 0.00 0.00 72 1015.7
20260902002603 82 192 1.0 4.0 0.00 0.00 0.00 72 1015.5
20260902002503 82 183 1.0 4.0 0.00 0.00 0.00 72 1015.6
20260902002424 82 184 1.0 4.0 0.00 0.00 0.00 72 1015.7
20260902002306 82 182 1.0 4.0 0.00 0.00 0.00 72 1015.6
20260902002202 82 187 1.0 4.0 0.00 0.00 0.00 72 1015.6
20260902002103 82 170 1.0 4.0 0.00 0.00 0.00 72 1015.5
20260902002002 82 163 1.0 4.0 0.00 0.00 0.00 72 1015.5
20260902001924 82 163 1.0 4.0 0.00 0.00 0.00 72 1015.7
20260902001803 82 160 1.0 4.0 0.00 0.00 0.00 71 1015.3
20260902001702 82 162 1.0 4.0 0.00 0.00 0.00 72 1015.5
20260902001602 82 160 1.0 4.0 0.00 0.00 0.00 71 1015.4
20260902001502 82 161 1.0 6.0 0.00 0.00 0.00 72 1015.4
20260902001402 82 163 1.0 6.0 0.00 0.00 0.00 71 1015.5
20260902001323 82 167 1.0 6.0 0.00 0.00 0.00 71 1015.4
20260902001202 82 168 1.0 6.0 0.00 0.00 0.00 72 1015.4
20260902001124 82 166 1.0 6.0 0.00 0.00 0.00 71 1015.5
20260902001002 82 168 1.0 7.0 0.00 0.00 0.00 72 1015.4
20260902000923 82 175 2.0 7.0 0.00 0.00 0.00 71 1015.5
20260902000802 82 184 2.0 9.0 0.00 0.00 0.00 71 1015.6
20260902000702 82 180 2.0 9.0 0.00 0.00 0.00 71 1015.9
20260902000602 82 177 2.0 9.0 0.00 0.00 0.00 71 1015.6
20260902000504 82 183 2.0 9.0 0.00 0.00 0.00 71 1015.5
20260902000404 83 180 2.0 9.0 0.00 0.00 0.00 71 1016.0
20260902000323 83 170 2.0 9.0 0.00 0.00 0.00 71 1015.6
20260902000204 83 171 2.0 9.0 0.00 0.00 0.00 71 1015.9
20260902000103 83 174 2.0 9.0 0.00 0.00 0.00 70 1015.6
20260902000002 83 177 2.0 9.0 0.00 0.00 0.00 70 1015.9
20260901235903 83 183 2.0 7.0 0.00 0.00 0.00 71 1015.7
20260901235803 83 199 2.0 7.0 0.00 0.00 0.00 71 1015.9
20260901235702 83 210 2.0 7.0 0.00 0.00 0.00 71 1015.9
20260901235603 83 212 2.0 7.0 0.00 0.00 0.00 71 1016.1
20260901235502 83 214 2.0 7.0 0.00 0.00 0.00 71 1016.0
20260901235402 83 218 2.0 7.0 0.00 0.00 0.00 71 1016.1
20260901235307 83 219 2.0 7.0 0.00 0.00 0.00 70 1015.9
20260901235202 83 219 2.0 7.0 0.00 0.00 0.00 71 1016.0
20260901235102 83 222 2.0 7.0 0.00 0.00 0.00 70 1016.0
20260901235002 83 216 2.0 7.0 0.00 0.00 0.00 71 1016.0
20260901234904 83 205 2.0 6.0 0.00 0.00 0.00 70 1016.1
20260901234802 83 198 1.0 6.0 0.00 0.00 0.00 71 1016.0
20260901234702 83 198 2.0 6.0 0.00 0.00 0.00 71 1015.7
20260901234623 83 206 2.0 6.0 0.00 0.00 0.00 70 1016.0
20260901234502 83 198 2.0 6.0 0.00 0.00 0.00 71 1016.1
20260901234402 83 189 1.0 6.0 0.00 0.00 0.00 71 1016.2
20260901234304 83 187 2.0 6.0 0.00 0.00 0.00 71 1016.0
20260901234202 83 185 1.0 6.0 0.00 0.00 0.00 71 1015.9
20260901234103 83 181 1.0 6.0 0.00 0.00 0.00 71 1016.1
20260901234002 83 182 1.0 6.0 0.00 0.00 0.00 70 1016.0
20260901233902 83 187 1.0 6.0 0.00 0.00 0.00 70 1016.1
20260901233804 83 182 1.0 6.0 0.00 0.00 0.00 70 1016.0
20260901233724 83 175 1.0 6.0 0.00 0.00 0.00 70 1016.1
20260901233604 83 155 1.0 4.0 0.00 0.00 0.00 70 1016.1
20260901233504 83 159 1.0 4.0 0.00 0.00 0.00 70 1016.1
20260901233403 83 177 1.0 6.0 0.00 0.00 0.00 70 1016.1
20260901233304 83 193 1.0 6.0 0.00 0.00 0.00 70 1015.9
20260901233203 83 219 1.0 6.0 0.00 0.00 0.00 69 1016.1
20260901233104 83 240 2.0 7.0 0.00 0.00 0.00 70 1015.9
20260901233002 83 243 2.0 7.0 0.00 0.00 0.00 70 1016.0
20260901232923 83 237 2.0 7.0 0.00 0.00 0.00 69 1016.3
20260901232803 83 236 2.0 7.0 0.00 0.00 0.00 69 1016.2
20260901232702 84 233 2.0 7.0 0.00 0.00 0.00 69 1016.2
20260901232603 84 234 2.0 7.0 0.00 0.00 0.00 69 1016.2
20260901232503 84 222 2.0 7.0 0.00 0.00 0.00 69 1015.7
20260901232402 84 215 2.0 7.0 0.00 0.00 0.00 69 1016.2
20260901232323 84 213 2.0 7.0 0.00 0.00 0.00 69 1016.2
20260901232202 84 209 2.0 7.0 0.00 0.00 0.00 68 1016.2
20260901232102 84 206 2.0 6.0 0.00 0.00 0.00 68 1016.2
20260901232002 84 207 2.0 6.0 0.00 0.00 0.00 68 1016.3
20260901231902 84 215 2.0 6.0 0.00 0.00 0.00 68 1016.3
20260901231802 84 222 2.0 6.0 0.00 0.00 0.00 68 1016.2
20260901231702 84 228 2.0 6.0 0.00 0.00 0.00 68 1016.5
20260901231603 84 231 2.0 6.0 0.00 0.00 0.00 67 1016.5
20260901231525 84 230 2.0 6.0 0.00 0.00 0.00 67 1016.4
20260901231404 84 227 2.0 6.0 0.00 0.00 0.00 67 1016.2
20260901231303 84 226 2.0 6.0 0.00 0.00 0.00 66 1016.3
20260901231204 84 222 2.0 6.0 0.00 0.00 0.00 66 1016.3
20260901231102 84 199 2.0 6.0 0.00 0.00 0.00 66 1016.4
20260901231024 84 207 2.0 6.0 0.00 0.00 0.00 66 1016.4
20260901230923 84 198 2.0 6.0 0.00 0.00 0.00 66 1016.5
20260901230802 85 200 2.0 7.0 0.00 0.00 0.00 66 1016.5
20260901230703 85 194 2.0 7.0 0.00 0.00 0.00 66 1016.6
20260901230603 85 197 2.0 7.0 0.00 0.00 0.00 65 1016.6
20260901230502 85 202 2.0 7.0 0.00 0.00 0.00 65 1016.5
20260901230402 85 197 2.0 7.0 0.00 0.00 0.00 65 1016.6
20260901230302 85 193 2.0 7.0 0.00 0.00 0.00 65 1016.6
20260901230202 85 196 3.0 7.0 0.00 0.00 0.00 65 1016.4
20260901230002 85 192 2.0 7.0 0.00 0.00 0.00 65 1016.5
20260901225902 85 190 2.0 7.0 0.00 0.00 0.00 65 1016.6
20260901225802 85 169 2.0 6.0 0.00 0.00 0.00 65 1016.7
20260901225725 85 161 2.0 7.0 0.00 0.00 0.00 65 1016.6
20260901225602 85 167 2.0 7.0 0.00 0.00 0.00 65 1016.7
20260901225503 85 175 2.0 7.0 0.00 0.00 0.00 65 1016.7
20260901225402 85 178 2.0 7.0 0.00 0.00 0.00 65 1016.6
20260901225306 85 184 3.0 7.0 0.00 0.00 0.00 65 1016.7
20260901225224 85 184 2.0 7.0 0.00 0.00 0.00 65 1016.6
20260901225104 85 182 3.0 7.0 0.00 0.00 0.00 65 1016.6
20260901225024 85 181 3.0 7.0 0.00 0.00 0.00 66 1016.5
20260901224902 85 188 3.0 7.0 0.00 0.00 0.00 65 1016.4
20260901224804 85 204 3.0 7.0 0.00 0.00 0.00 65 1016.5
20260901224703 85 204 2.0 7.0 0.00 0.00 0.00 65 1016.7
20260901224603 85 217 2.0 6.0 0.00 0.00 0.00 64 1016.6
20260901224503 85 218 3.0 8.0 0.00 0.00 0.00 65 1016.7
20260901224402 85 212 3.0 8.0 0.00 0.00 0.00 65 1016.8
20260901224302 85 222 3.0 8.0 0.00 0.00 0.00 65 1016.7
20260901224223 85 227 3.0 8.0 0.00 0.00 0.00 65 1016.8
20260901224124 85 230 3.0 8.0 0.00 0.00 0.00 65 1016.6
20260901224002 85 232 3.0 9.0 0.00 0.00 0.00 66 1016.6
20260901223902 85 228 3.0 9.0 0.00 0.00 0.00 65 1016.7
20260901223804 85 223 3.0 9.0 0.00 0.00 0.00 65 1016.7
20260901223702 86 224 3.0 9.0 0.00 0.00 0.00 65 1016.7
20260901223602 86 217 3.0 9.0 0.00 0.00 0.00 65 1016.7
20260901223503 86 222 3.0 9.0 0.00 0.00 0.00 64 1016.8
20260901223402 86 228 3.0 9.0 0.00 0.00 0.00 65 1016.7
20260901223302 86 220 3.0 9.0 0.00 0.00 0.00 65 1016.7
20260901223225 86 220 4.0 9.0 0.00 0.00 0.00 65 1016.6
20260901223102 87 214 4.0 9.0 0.00 0.00 0.00 64 1016.8
20260901223006 87 216 3.0 8.0 0.00 0.00 0.00 64 1016.5
20260901222902 87 219 4.0 8.0 0.00 0.00 0.00 64 1016.7
20260901222802 87 222 4.0 8.0 0.00 0.00 0.00 64 1016.5
20260901222702 87 222 4.0 8.0 0.00 0.00 0.00 64 1016.6
20260901222623 87 225 4.0 8.0 0.00 0.00 0.00 63 1016.7
20260901222502 87 215 4.0 8.0 0.00 0.00 0.00 63 1016.6
20260901222402 87 220 4.0 9.0 0.00 0.00 0.00 64 1016.7
20260901222306 87 221 4.0 9.0 0.00 0.00 0.00 63 1016.8
20260901222203 87 219 4.0 11.0 0.00 0.00 0.00 64 1016.7
20260901222123 87 229 4.0 13.0 0.00 0.00 0.00 63 1016.7
20260901222003 87 241 5.0 14.0 0.00 0.00 0.00 63 1016.6
20260901221902 87 244 5.0 14.0 0.00 0.00 0.00 63 1016.6
20260901221803 87 249 5.0 14.0 0.00 0.00 0.00 64 1016.8
20260901221702 87 253 6.0 14.0 0.00 0.00 0.00 64 1016.7
20260901221602 87 256 6.0 14.0 0.00 0.00 0.00 64 1016.5
20260901221504 87 258 6.0 14.0 0.00 0.00 0.00 65 1016.4
20260901221403 87 254 6.0 14.0 0.00 0.00 0.00 64 1016.6
20260901221325 87 260 6.0 14.0 0.00 0.00 0.00 63 1016.6
20260901221204 87 251 5.0 14.0 0.00 0.00 0.00 63 1016.5
20260901221125 87 245 5.0 14.0 0.00 0.00 0.00 64 1016.6
20260901221002 87 236 5.0 13.0 0.00 0.00 0.00 63 1016.3
20260901220902 87 232 4.0 13.0 0.00 0.00 0.00 64 1016.5
20260901220824 87 229 4.0 9.0 0.00 0.00 0.00 64 1016.5
20260901220723 87 223 4.0 9.0 0.00 0.00 0.00 64 1016.5
20260901220604 87 218 4.0 9.0 0.00 0.00 0.00 65 1016.6
20260901220502 87 219 4.0 9.0 0.00 0.00 0.00 65 1016.5
20260901220402 87 225 4.0 9.0 0.00 0.00 0.00 65 1016.6
20260901220302 87 223 4.0 9.0 0.00 0.00 0.00 65 1016.6
20260901220203 87 228 4.0 9.0 0.00 0.00 0.00 65 1016.6
20260901220003 87 230 4.0 9.0 0.00 0.00 0.00 66 1016.6
20260901215902 87 233 4.0 9.0 0.00 0.00 0.00 66 1016.3
20260901215802 87 230 4.0 9.0 0.00 0.00 0.00 65 1016.5
20260901215723 87 224 4.0 9.0 0.00 0.00 0.00 66 1016.5
20260901215623 87 224 4.0 11.0 0.00 0.00 0.00 65 1016.5
20260901215503 87 229 4.0 13.0 0.00 0.00 0.00 66 1016.5
20260901215403 87 224 5.0 13.0 0.00 0.00 0.00 66 1016.4
20260901215306 87 222 5.0 14.0 0.00 0.00 0.00 65 1016.5
20260901215203 87 224 5.0 14.0 0.00 0.00 0.00 65 1016.5
20260901215102 88 225 5.0 14.0 0.00 0.00 0.00 65 1016.6
20260901215002 88 228 5.0 14.0 0.00 0.00 0.00 64 1016.6
20260901214923 88 227 5.0 14.0 0.00 0.00 0.00 64 1016.3
20260901214802 88 229 5.0 14.0 0.00 0.00 0.00 64 1016.4
20260901214702 88 230 5.0 14.0 0.00 0.00 0.00 64 1016.3
20260901214625 88 233 5.0 14.0 0.00 0.00 0.00 63 1016.5
20260901214504 88 229 5.0 14.0 0.00 0.00 0.00 63 1016.4
20260901214425 89 229 4.0 14.0 0.00 0.00 0.00 63 1016.5
20260901214302 89 226 4.0 10.0 0.00 0.00 0.00 63 1016.5
20260901214203 89 225 4.0 10.0 0.00 0.00 0.00 63 1016.4
20260901214102 89 225 4.0 10.0 0.00 0.00 0.00 63 1016.2
20260901214003 88 214 4.0 10.0 0.00 0.00 0.00 63 1016.3
20260901213902 88 209 4.0 10.0 0.00 0.00 0.00 64 1016.1
20260901213803 88 208 4.0 10.0 0.00 0.00 0.00 64 1016.4
20260901213702 88 209 4.0 10.0 0.00 0.00 0.00 64 1016.4
20260901213602 88 193 4.0 9.0 0.00 0.00 0.00 65 1016.3
20260901213502 88 197 4.0 9.0 0.00 0.00 0.00 64 1016.4
20260901213402 88 204 4.0 10.0 0.00 0.00 0.00 68 1016.3
20260901213303 88 203 4.0 10.0 0.00 0.00 0.00 68 1016.3
20260901213202 88 197 4.0 10.0 0.00 0.00 0.00 68 1016.1
20260901213102 88 193 4.0 10.0 0.00 0.00 0.00 68 1016.2
20260901213002 88 201 4.0 11.0 0.00 0.00 0.00 68 1016.1
20260901212902 88 198 4.0 11.0 0.00 0.00 0.00 67 1016.3
20260901212802 88 191 4.0 11.0 0.00 0.00 0.00 67 1016.2
20260901212702 88 196 4.0 11.0 0.00 0.00 0.00 68 1016.2
20260901212603 88 196 4.0 11.0 0.00 0.00 0.00 68 1016.1
20260901212503 88 188 4.0 11.0 0.00 0.00 0.00 68 1016.1
20260901212403 88 178 3.0 11.0 0.00 0.00 0.00 68 1016.3
20260901212306 88 179 3.0 11.0 0.00 0.00 0.00 68 1016.2
20260901212223 88 183 3.0 11.0 0.00 0.00 0.00 68 1016.2
20260901212102 88 192 3.0 11.0 0.00 0.00 0.00 68 1016.4
20260901212003 88 184 3.0 10.0 0.00 0.00 0.00 68 1016.4
20260901211902 88 189 3.0 10.0 0.00 0.00 0.00 68 1016.3
20260901211802 88 200 3.0 9.0 0.00 0.00 0.00 67 1016.4
20260901211703 87 211 3.0 9.0 0.00 0.00 0.00 68 1016.4
20260901211602 87 220 3.0 9.0 0.00 0.00 0.00 69 1016.5
20260901211502 87 222 3.0 9.0 0.00 0.00 0.00 69 1016.3
20260901211403 87 221 3.0 9.0 0.00 0.00 0.00 69 1016.4
20260901211302 87 219 4.0 10.0 0.00 0.00 0.00 69 1016.3
20260901211223 87 209 4.0 10.0 0.00 0.00 0.00 69 1016.3
20260901211103 87 207 4.0 10.0 0.00 0.00 0.00 68 1016.4
20260901211002 87 204 4.0 10.0 0.00 0.00 0.00 68 1016.5
20260901210903 87 208 4.0 10.0 0.00 0.00 0.00 68 1016.6
20260901210802 87 203 4.0 10.0 0.00 0.00 0.00 69 1016.6
20260901210723 87 197 4.0 10.0 0.00 0.00 0.00 68 1016.4
20260901210603 88 194 4.0 10.0 0.00 0.00 0.00 68 1016.4
20260901210502 88 189 4.0 10.0 0.00 0.00 0.00 68 1016.4
20260901210403 88 188 4.0 10.0 0.00 0.00 0.00 67 1016.6
20260901210323 88 181 4.0 10.0 0.00 0.00 0.00 67 1016.5
20260901210202 89 187 4.0 10.0 0.00 0.00 0.00 66 1016.4
20260901210002 88 191 4.0 10.0 0.00 0.00 0.00 66 1016.4
20260901205902 88 191 4.0 10.0 0.00 0.00 0.00 66 1016.6
20260901205804 88 193 4.0 10.0 0.00 0.00 0.00 67 1016.5
20260901205702 88 190 4.0 10.0 0.00 0.00 0.00 67 1016.5
20260901205603 89 185 3.0 9.0 0.00 0.00 0.00 66 1016.4
20260901205503 89 191 3.0 9.0 0.00 0.00 0.00 66 1016.4
20260901205403 89 186 3.0 9.0 0.00 0.00 0.00 66 1016.5
20260901205306 89 194 3.0 9.0 0.00 0.00 0.00 65 1016.6
20260901205202 89 193 3.0 9.0 0.00 0.00 0.00 65 1016.5
20260901205102 90 187 3.0 7.0 0.00 0.00 0.00 65 1016.4
20260901205003 90 174 2.0 7.0 0.00 0.00 0.00 64 1016.4
20260901204903 91 173 2.0 7.0 0.00 0.00 0.00 63 1016.4
20260901204802 91 167 2.0 7.0 0.00 0.00 0.00 62 1016.4
20260901204702 91 165 2.0 7.0 0.00 0.00 0.00 62 1016.4
20260901204624 91 171 2.0 7.0 0.00 0.00 0.00 62 1016.5
20260901204504 91 176 2.0 8.0 0.00 0.00 0.00 62 1016.3
20260901204423 91 188 2.0 8.0 0.00 0.00 0.00 63 1016.3
20260901204302 91 189 2.0 8.0 0.00 0.00 0.00 62 1016.3
20260901204202 90 200 2.0 8.0 0.00 0.00 0.00 64 1016.3
20260901204102 90 202 2.0 8.0 0.00 0.00 0.00 64 1016.4
20260901204002 90 202 2.0 8.0 0.00 0.00 0.00 65 1016.5
20260901203903 90 206 2.0 8.0 0.00 0.00 0.00 64 1016.4
20260901203804 89 208 2.0 8.0 0.00 0.00 0.00 65 1016.4
20260901203703 90 208 2.0 8.0 0.00 0.00 0.00 66 1016.5
20260901203602 90 208 2.0 8.0 0.00 0.00 0.00 64 1016.4
20260901203502 90 198 2.0 8.0 0.00 0.00 0.00 63 1016.5
20260901203423 89 188 2.0 8.0 0.00 0.00 0.00 63 1016.4
20260901203303 89 203 3.0 8.0 0.00 0.00 0.00 65 1016.5
20260901203202 89 194 3.0 8.0 0.00 0.00 0.00 65 1016.4
20260901203104 89 204 3.0 8.0 0.00 0.00 0.00 65 1016.6
20260901203004 88 213 3.0 8.0 0.00 0.00 0.00 65 1016.5
20260901202902 88 217 3.0 8.0 0.00 0.00 0.00 65 1016.6
20260901202802 87 212 4.0 9.0 0.00 0.00 0.00 65 1016.5
20260901202702 87 213 4.0 11.0 0.00 0.00 0.00 65 1016.4
20260901202602 87 210 4.0 11.0 0.00 0.00 0.00 66 1016.5
20260901202503 88 217 4.0 11.0 0.00 0.00 0.00 66 1016.6
20260901202403 88 218 4.0 11.0 0.00 0.00 0.00 66 1016.4
20260901202325 88 220 4.0 11.0 0.00 0.00 0.00 66 1016.6
20260901202202 88 221 4.0 11.0 0.00 0.00 0.00 66 1016.5
20260901202104 88 218 4.0 11.0 0.00 0.00 0.00 65 1016.5
20260901202003 88 217 4.0 11.0 0.00 0.00 0.00 65 1016.7
20260901201902 88 215 4.0 11.0 0.00 0.00 0.00 64 1016.4
20260901201803 88 217 3.0 11.0 0.00 0.00 0.00 64 1016.4
20260901201702 89 217 3.0 11.0 0.00 0.00 0.00 65 1016.3
20260901201604 89 219 4.0 11.0 0.00 0.00 0.00 64 1016.4
20260901201502 89 218 3.0 11.0 0.00 0.00 0.00 64 1016.4
20260901201402 89 217 3.0 10.0 0.00 0.00 0.00 65 1016.4
20260901201303 89 209 3.0 10.0 0.00 0.00 0.00 63 1016.4
20260901201225 89 218 3.0 11.0 0.00 0.00 0.00 63 1016.6
20260901201102 89 222 4.0 11.0 0.00 0.00 0.00 63 1016.4
20260901201003 89 226 4.0 11.0 0.00 0.00 0.00 64 1016.4
20260901200923 89 226 4.0 11.0 0.00 0.00 0.00 64 1016.3
20260901200824 89 221 4.0 11.0 0.00 0.00 0.00 64 1016.3
20260901200704 89 226 4.0 11.0 0.00 0.00 0.00 63 1016.5
20260901200604 89 231 4.0 11.0 0.00 0.00 0.00 64 1016.3
20260901200503 89 232 4.0 11.0 0.00 0.00 0.00 63 1016.2
20260901200424 89 225 4.0 11.0 0.00 0.00 0.00 63 1016.7
20260901200304 90 228 4.0 11.0 0.00 0.00 0.00 63 1016.3
20260901200202 91 226 4.0 10.0 0.00 0.00 0.00 63 1016.4
20260901200004 90 223 4.0 10.0 0.00 0.00 0.00 61 1016.2
20260901195903 90 228 4.0 10.0 0.00 0.00 0.00 62 1016.3
20260901195824 90 231 4.0 10.0 0.00 0.00 0.00 63 1016.5
20260901195702 91 225 3.0 9.0 0.00 0.00 0.00 61 1016.3
20260901195603 91 211 3.0 9.0 0.00 0.00 0.00 61 1016.3
20260901195503 91 206 3.0 9.0 0.00 0.00 0.00 61 1016.2
20260901195402 91 215 3.0 8.0 0.00 0.00 0.00 61 1016.3
20260901195323 91 219 3.0 9.0 0.00 0.00 0.00 61 1016.3
20260901195204 91 205 3.0 9.0 0.00 0.00 0.00 60 1016.4
20260901195103 91 201 3.0 9.0 0.00 0.00 0.00 61 1016.2
20260901195023 91 199 3.0 9.0 0.00 0.00 0.00 61 1016.1
20260901194903 91 200 3.0 9.0 0.00 0.00 0.00 60 1016.3
20260901194803 91 202 3.0 9.0 0.00 0.00 0.00 60 1016.1
20260901194702 91 203 3.0 9.0 0.00 0.00 0.00 60 1016.2
20260901194602 91 208 3.0 9.0 0.00 0.00 0.00 60 1016.0
20260901194524 91 209 3.0 9.0 0.00 0.00 0.00 60 1015.9
20260901194402 91 208 3.0 9.0 0.00 0.00 0.00 60 1016.2
20260901194323 91 213 3.0 9.0 0.00 0.00 0.00 59 1016.0
20260901194203 91 229 3.0 9.0 0.00 0.00 0.00 59 1016.0
20260901194102 90 236 3.0 9.0 0.00 0.00 0.00 60 1016.2
20260901194002 90 243 3.0 9.0 0.00 0.00 0.00 59 1016.1
20260901193923 90 241 3.0 8.0 0.00 0.00 0.00 60 1016.0
20260901193802 90 239 3.0 8.0 0.00 0.00 0.00 60 1016.0
20260901193702 90 244 3.0 8.0 0.00 0.00 0.00 60 1016.3
20260901193602 89 259 3.0 8.0 0.00 0.00 0.00 60 1016.1
20260901193502 89 258 3.0 8.0 0.00 0.00 0.00 62 1016.1
20260901193403 89 251 3.0 8.0 0.00 0.00 0.00 61 1016.1
20260901193302 90 248 3.0 8.0 0.00 0.00 0.00 60 1016.2
20260901193224 90 256 3.0 9.0 0.00 0.00 0.00 60 1016.2
20260901193102 90 256 3.0 9.0 0.00 0.00 0.00 59 1016.3
20260901193003 90 251 3.0 9.0 0.00 0.00 0.00 60 1016.1
20260901192924 90 247 4.0 9.0 0.00 0.00 0.00 60 1016.2
20260901192803 89 243 4.0 9.0 0.00 0.00 0.00 61 1016.0
20260901192702 89 242 4.0 9.0 0.00 0.00 0.00 61 1016.0
20260901192603 89 229 4.0 9.0 0.00 0.00 0.00 61 1016.0
20260901192503 89 226 4.0 9.0 0.00 0.00 0.00 62 1016.0
20260901192404 90 230 4.0 9.0 0.00 0.00 0.00 59 1016.2
20260901192306 90 226 4.0 9.0 0.00 0.00 0.00 60 1016.0
20260901192202 90 211 4.0 9.0 0.00 0.00 0.00 59 1016.0
20260901192102 90 204 4.0 9.0 0.00 0.00 0.00 60 1016.1
20260901192002 90 192 3.0 8.0 0.00 0.00 0.00 59 1016.1
20260901191903 90 193 3.0 8.0 0.00 0.00 0.00 59 1016.1
20260901191803 90 188 3.0 8.0 0.00 0.00 0.00 58 1016.1
20260901191702 90 185 3.0 8.0 0.00 0.00 0.00 59 1016.2
20260901191603 91 192 3.0 8.0 0.00 0.00 0.00 60 1016.0
20260901191502 91 191 3.0 8.0 0.00 0.00 0.00 60 1016.1
20260901191403 91 188 3.0 8.0 0.00 0.00 0.00 62 1016.1
20260901191323 91 184 3.0 8.0 0.00 0.00 0.00 60 1015.7
20260901191202 91 182 3.0 8.0 0.00 0.00 0.00 59 1016.0
20260901191104 91 181 3.0 8.0 0.00 0.00 0.00 59 1016.1
20260901191003 91 176 3.0 8.0 0.00 0.00 0.00 60 1015.9
20260901190902 90 177 3.0 8.0 0.00 0.00 0.00 61 1015.9
20260901190823 90 184 3.0 9.0 0.00 0.00 0.00 60 1016.0
20260901190703 90 180 4.0 9.0 0.00 0.00 0.00 61 1016.0
20260901190603 89 172 4.0 9.0 0.00 0.00 0.00 62 1016.0
20260901190502 89 175 4.0 9.0 0.00 0.00 0.00 62 1016.0
20260901190404 89 171 4.0 9.0 0.00 0.00 0.00 63 1016.1
20260901190303 89 170 4.0 9.0 0.00 0.00 0.00 63 1016.0
20260901190202 89 172 4.0 9.0 0.00 0.00 0.00 63 1015.9
20260901190002 90 177 4.0 9.0 0.00 0.00 0.00 62 1016.1
20260901185904 90 180 4.0 9.0 0.00 0.00 0.00 63 1015.9
20260901185803 90 181 3.0 8.0 0.00 0.00 0.00 61 1016.0
20260901185703 90 190 3.0 8.0 0.00 0.00 0.00 61 1016.0
20260901185602 90 205 3.0 8.0 0.00 0.00 0.00 62 1016.0
20260901185502 90 207 3.0 8.0 0.00 0.00 0.00 62 1015.9
20260901185403 90 212 3.0 8.0 0.00 0.00 0.00 62 1015.9
20260901185305 90 219 3.0 8.0 0.00 0.00 0.00 63 1015.9
20260901185202 90 225 3.0 8.0 0.00 0.00 0.00 63 1015.9
20260901185103 89 231 3.0 8.0 0.00 0.00 0.00 61 1016.0
20260901185002 89 229 3.0 7.0 0.00 0.00 0.00 63 1016.1
20260901184904 89 231 3.0 7.0 0.00 0.00 0.00 62 1016.1
20260901184802 90 224 3.0 8.0 0.00 0.00 0.00 65 1016.1
20260901184702 90 222 3.0 8.0 0.00 0.00 0.00 62 1016.2
20260901184603 90 218 3.0 8.0 0.00 0.00 0.00 61 1016.2
20260901184502 90 223 3.0 8.0 0.00 0.00 0.00 62 1016.1
20260901184424 90 218 3.0 8.0 0.00 0.00 0.00 62 1016.3
20260901184304 90 217 3.0 8.0 0.00 0.00 0.00 62 1016.1
20260901184203 89 203 3.0 8.0 0.00 0.00 0.00 63 1016.1
20260901184103 89 210 3.0 13.0 0.00 0.00 0.00 63 1016.2
20260901184002 89 213 4.0 13.0 0.00 0.00 0.00 63 1016.1
20260901183902 89 210 4.0 13.0 0.00 0.00 0.00 62 1016.3
20260901183824 89 210 4.0 13.0 0.00 0.00 0.00 62 1016.3
20260901183704 89 206 4.0 13.0 0.00 0.00 0.00 63 1016.2
20260901183602 90 205 4.0 13.0 0.00 0.00 0.00 62 1016.2
20260901183503 89 200 4.0 13.0 0.00 0.00 0.00 61 1016.2
20260901183402 89 200 4.0 13.0 0.00 0.00 0.00 62 1016.2
20260901183303 89 193 4.0 13.0 0.00 0.00 0.00 62 1016.3
20260901183202 89 193 4.0 13.0 0.00 0.00 0.00 62 1016.3
20260901183104 89 184 4.0 13.0 0.00 0.00 0.00 62 1016.2
20260901183005 89 170 4.0 8.0 0.00 0.00 0.00 62 1016.2
20260901182923 89 178 4.0 8.0 0.00 0.00 0.00 63 1016.2
20260901182803 89 187 4.0 8.0 0.00 0.00 0.00 62 1016.2
20260901182702 90 184 4.0 8.0 0.00 0.00 0.00 62 1016.4
20260901182602 90 177 3.0 8.0 0.00 0.00 0.00 63 1016.4
20260901182524 90 183 3.0 8.0 0.00 0.00 0.00 64 1016.4
20260901182402 89 197 4.0 8.0 0.00 0.00 0.00 64 1016.4
20260901182305 89 205 3.0 8.0 0.00 0.00 0.00 64 1016.3
20260901182202 89 210 3.0 8.0 0.00 0.00 0.00 64 1016.4
20260901182123 89 217 4.0 10.0 0.00 0.00 0.00 65 1016.4
20260901182003 89 230 4.0 10.0 0.00 0.00 0.00 66 1016.2
20260901181925 89 231 4.0 10.0 0.00 0.00 0.00 65 1016.3
20260901181802 88 227 3.0 10.0 0.00 0.00 0.00 65 1016.2
20260901181703 88 227 4.0 10.0 0.00 0.00 0.00 66 1016.4
20260901181604 88 229 4.0 10.0 0.00 0.00 0.00 65 1016.3
20260901181502 88 224 3.0 10.0 0.00 0.00 0.00 64 1016.5
20260901181402 88 220 3.0 10.0 0.00 0.00 0.00 65 1016.2
20260901181302 87 224 4.0 10.0 0.00 0.00 0.00 65 1016.3
20260901181204 88 226 4.0 10.0 0.00 0.00 0.00 66 1016.5
20260901181104 88 230 4.0 8.0 0.00 0.00 0.00 65 1016.5
20260901181003 88 233 4.0 8.0 0.00 0.00 0.00 65 1016.4
20260901180903 88 234 4.0 8.0 0.00 0.00 0.00 65 1016.4
20260901180802 88 237 4.0 8.0 0.00 0.00 0.00 66 1016.6
20260901180703 88 239 4.0 8.0 0.00 0.00 0.00 67 1016.6
20260901180602 88 243 4.0 8.0 0.00 0.00 0.00 67 1016.5
20260901180502 87 242 4.0 8.0 0.00 0.00 0.00 67 1016.5
20260901180402 87 234 4.0 8.0 0.00 0.00 0.00 67 1016.6
20260901180304 87 228 3.0 8.0 0.00 0.00 0.00 67 1016.4
20260901180224 87 225 3.0 8.0 0.00 0.00 0.00 67 1016.7
20260901180003 88 206 3.0 8.0 0.00 0.00 0.00 66 1016.4
20260901175904 88 218 3.0 9.0 0.00 0.00 0.00 65 1016.5
20260901175824 88 221 3.0 9.0 0.00 0.00 0.00 65 1016.6
20260901175703 88 213 3.0 9.0 0.00 0.00 0.00 65 1016.4
20260901175602 88 202 3.0 9.0 0.00 0.00 0.00 66 1016.4
20260901175523 88 205 3.0 9.0 0.00 0.00 0.00 66 1016.6
20260901175402 87 217 3.0 9.0 0.00 0.00 0.00 64 1016.5
20260901175305 87 228 3.0 9.0 0.00 0.00 0.00 66 1016.4
20260901175203 87 222 3.0 9.0 0.00 0.00 0.00 67 1016.5
20260901175102 87 221 3.0 9.0 0.00 0.00 0.00 67 1016.5
20260901175003 87 210 3.0 9.0 0.00 0.00 0.00 68 1016.4
20260901174902 87 206 3.0 9.0 0.00 0.00 0.00 67 1016.5
20260901174802 87 204 3.0 9.0 0.00 0.00 0.00 67 1016.5
20260901174703 87 206 3.0 9.0 0.00 0.00 0.00 67 1016.4
20260901174603 87 216 4.0 9.0 0.00 0.00 0.00 67 1016.3
20260901174502 88 215 4.0 9.0 0.00 0.00 0.00 67 1016.3
20260901174424 88 217 4.0 9.0 0.00 0.00 0.00 66 1016.5
20260901174302 88 222 4.0 9.0 0.00 0.00 0.00 67 1016.3
20260901174203 88 228 4.0 9.0 0.00 0.00 0.00 67 1016.4
20260901174102 87 226 4.0 9.0 0.00 0.00 0.00 67 1016.3
20260901174023 87 223 4.0 9.0 0.00 0.00 0.00 67 1016.2
20260901173902 88 219 4.0 9.0 0.00 0.00 0.00 66 1016.5
20260901173824 88 216 4.0 13.0 0.00 0.00 0.00 66 1016.2
20260901173702 88 216 4.0 13.0 0.00 0.00 0.00 66 1016.5
20260901173602 88 212 4.0 13.0 0.00 0.00 0.00 67 1016.3
20260901173503 88 210 3.0 13.0 0.00 0.00 0.00 67 1016.3
20260901173424 88 206 3.0 13.0 0.00 0.00 0.00 67 1016.4
20260901173302 88 195 3.0 13.0 0.00 0.00 0.00 67 1016.4
20260901173223 88 188 3.0 13.0 0.00 0.00 0.00 67 1016.5
20260901173123 88 183 3.0 13.0 0.00 0.00 0.00 66 1016.4
20260901173002 89 183 3.0 13.0 0.00 0.00 0.00 66 1016.5
20260901172902 89 189 3.0 13.0 0.00 0.00 0.00 66 1016.6
20260901172802 89 191 3.0 7.0 0.00 0.00 0.00 65 1016.4
20260901172703 89 185 3.0 8.0 0.00 0.00 0.00 65 1016.6
20260901172602 90 185 3.0 8.0 0.00 0.00 0.00 65 1016.6
20260901172503 90 199 3.0 8.0 0.00 0.00 0.00 65 1016.4
20260901172402 90 205 3.0 8.0 0.00 0.00 0.00 64 1016.2
20260901172305 89 214 3.0 8.0 0.00 0.00 0.00 65 1016.5
20260901172203 89 220 3.0 8.0 0.00 0.00 0.00 65 1016.5
20260901172102 89 240 4.0 8.0 0.00 0.00 0.00 65 1016.4
20260901172002 89 248 4.0 8.0 0.00 0.00 0.00 65 1016.6
20260901171923 89 250 4.0 9.0 0.00 0.00 0.00 65 1016.6
20260901171823 89 243 4.0 9.0 0.00 0.00 0.00 65 1016.7
20260901171703 89 249 4.0 11.0 0.00 0.00 0.00 65 1016.5
20260901171602 89 249 4.0 11.0 0.00 0.00 0.00 65 1016.5
20260901171502 88 246 4.0 11.0 0.00 0.00 0.00 66 1016.6
20260901171402 88 241 4.0 11.0 0.00 0.00 0.00 66 1016.5
20260901171302 88 242 4.0 11.0 0.00 0.00 0.00 65 1016.7
20260901171203 89 237 4.0 11.0 0.00 0.00 0.00 66 1016.8
20260901171102 89 234 4.0 11.0 0.00 0.00 0.00 65 1016.7
20260901171002 89 231 4.0 11.0 0.00 0.00 0.00 65 1016.7
20260901170924 89 230 4.0 11.0 0.00 0.00 0.00 65 1016.7
20260901170804 89 232 4.0 11.0 0.00 0.00 0.00 65 1016.6
20260901170702 89 230 4.0 11.0 0.00 0.00 0.00 64 1016.7
20260901170602 89 238 4.0 11.0 0.00 0.00 0.00 65 1016.8
20260901170502 88 236 5.0 11.0 0.00 0.00 0.00 64 1016.9
20260901170403 88 246 5.0 11.0 0.00 0.00 0.00 65 1016.8
20260901170303 88 245 5.0 11.0 0.00 0.00 0.00 65 1016.7
20260901170204 88 252 5.0 11.0 0.00 0.00 0.00 67 1016.9
20260901170004 88 254 5.0 11.0 0.00 0.00 0.00 67 1016.9
20260901165902 88 254 5.0 11.0 0.00 0.00 0.00 67 1016.8
20260901165804 88 255 4.0 11.0 0.00 0.00 0.00 66 1016.9
20260901165724 88 264 4.0 11.0 0.00 0.00 0.00 67 1016.7
20260901165603 88 252 4.0 8.0 0.00 0.00 0.00 65 1016.8
20260901165503 88 262 4.0 13.0 0.00 0.00 0.00 65 1016.7
20260901165403 88 259 4.0 13.0 0.00 0.00 0.00 66 1016.8
20260901165306 87 261 4.0 13.0 0.00 0.00 0.00 67 1016.9
20260901165202 87 260 5.0 13.0 0.00 0.00 0.00 67 1017.0
20260901165102 88 256 5.0 13.0 0.00 0.00 0.00 67 1016.8
20260901165004 88 257 5.0 13.0 0.00 0.00 0.00 66 1016.9
20260901164902 88 258 4.0 13.0 0.00 0.00 0.00 66 1016.9
20260901164803 88 255 4.0 13.0 0.00 0.00 0.00 67 1016.8
20260901164704 88 245 4.0 13.0 0.00 0.00 0.00 67 1016.9
20260901164602 88 245 4.0 13.0 0.00 0.00 0.00 66 1017.0
20260901164502 88 241 4.0 9.0 0.00 0.00 0.00 68 1017.1
20260901164402 88 234 4.0 9.0 0.00 0.00 0.00 67 1017.1
20260901164302 88 233 4.0 9.0 0.00 0.00 0.00 67 1017.0
20260901164202 87 234 4.0 9.0 0.00 0.00 0.00 68 1017.1
20260901164102 87 243 4.0 7.0 0.00 0.00 0.00 68 1017.1
20260901164024 87 240 4.0 7.0 0.00 0.00 0.00 68 1017.1
20260901163902 87 235 4.0 8.0 0.00 0.00 0.00 69 1016.8
20260901163803 87 235 4.0 11.0 0.00 0.00 0.00 68 1017.1
20260901163702 87 243 4.0 11.0 0.00 0.00 0.00 67 1017.1
20260901163602 87 239 4.0 11.0 0.00 0.00 0.00 68 1017.0
20260901163502 87 239 4.0 11.0 0.00 0.00 0.00 68 1017.1
20260901163402 87 238 4.0 11.0 0.00 0.00 0.00 69 1016.9
20260901163304 87 236 4.0 11.0 0.00 0.00 0.00 68 1017.0
20260901163202 87 232 4.0 11.0 0.00 0.00 0.00 68 1017.1
20260901163102 87 225 4.0 11.0 0.00 0.00 0.00 68 1017.1
20260901163002 87 231 3.0 11.0 0.00 0.00 0.00 67 1017.2
20260901162904 88 226 3.0 11.0 0.00 0.00 0.00 68 1017.0
20260901162803 88 222 3.0 9.0 0.00 0.00 0.00 67 1017.1
20260901162725 88 208 3.0 9.0 0.00 0.00 0.00 66 1017.1
20260901162604 88 214 3.0 7.0 0.00 0.00 0.00 67 1017.0
20260901162502 88 227 3.0 7.0 0.00 0.00 0.00 67 1017.1
20260901162402 87 236 3.0 7.0 0.00 0.00 0.00 68 1017.2
20260901162306 87 246 3.0 7.0 0.00 0.00 0.00 67 1017.0
20260901162207 87 249 3.0 7.0 0.00 0.00 0.00 68 1017.0
20260901162102 87 266 3.0 7.0 0.00 0.00 0.00 68 1017.0
20260901162004 86 274 3.0 7.0 0.00 0.00 0.00 69 1017.0
20260901161902 86 268 3.0 7.0 0.00 0.00 0.00 70 1017.0
20260901161804 86 265 3.0 7.0 0.00 0.00 0.00 68 1017.0
20260901161702 86 277 3.0 7.0 0.00 0.00 0.00 69 1017.1
20260901161602 86 302 3.0 7.0 0.00 0.00 0.00 69 1017.0
20260901161504 87 299 3.0 7.0 0.00 0.00 0.00 68 1016.7
20260901161404 87 297 3.0 9.0 0.00 0.00 0.00 69 1017.1
20260901161302 87 250 3.0 9.0 0.00 0.00 0.00 68 1017.1
20260901161202 87 238 3.0 9.0 0.00 0.00 0.00 70 1016.9
20260901161124 87 245 2.0 9.0 0.00 0.00 0.00 70 1017.2
20260901161023 87 253 3.0 9.0 0.00 0.00 0.00 68 1017.2
20260901160902 87 290 3.0 9.0 0.00 0.00 0.00 68 1017.1
20260901160802 86 296 3.0 9.0 0.00 0.00 0.00 69 1017.0
20260901160725 86 290 3.0 10.0 0.00 0.00 0.00 69 1017.1
20260901160602 86 279 4.0 10.0 0.00 0.00 0.00 69 1017.2
20260901160502 86 270 4.0 10.0 0.00 0.00 0.00 68 1017.1
20260901160403 86 265 4.0 10.0 0.00 0.00 0.00 69 1017.2
20260901160302 85 261 4.0 10.0 0.00 0.00 0.00 69 1017.1
20260901160224 85 260 4.0 10.0 0.00 0.00 0.00 70 1017.1
20260901160004 85 243 4.0 10.0 0.00 0.00 0.00 72 1017.1
20260901155902 85 243 4.0 10.0 0.00 0.00 0.00 71 1017.2
20260901155802 85 245 4.0 10.0 0.00 0.00 0.00 70 1017.0
20260901155703 85 238 4.0 8.0 0.00 0.00 0.00 71 1017.1
20260901155602 86 231 4.0 8.0 0.00 0.00 0.00 69 1017.0
20260901155502 86 231 4.0 10.0 0.00 0.00 0.00 69 1017.2
20260901155424 86 233 4.0 10.0 0.00 0.00 0.00 68 1017.1
20260901155305 85 245 4.0 10.0 0.00 0.00 0.00 68 1017.1
20260901155223 85 250 4.0 10.0 0.00 0.00 0.00 69 1017.0
20260901155102 85 260 4.0 13.0 0.00 0.00 0.00 70 1017.0
20260901155003 85 257 4.0 13.0 0.00 0.00 0.00 71 1017.1
20260901154904 85 249 4.0 13.0 0.00 0.00 0.00 70 1017.2
20260901154824 85 241 4.0 13.0 0.00 0.00 0.00 70 1017.2
20260901154703 85 241 4.0 13.0 0.00 0.00 0.00 70 1017.1
20260901154604 85 242 4.0 13.0 0.00 0.00 0.00 70 1017.0
20260901154502 85 243 4.0 13.0 0.00 0.00 0.00 70 1017.1
20260901154403 85 240 4.0 13.0 0.00 0.00 0.00 70 1017.3
20260901154304 85 239 4.0 13.0 0.00 0.00 0.00 70 1017.2
20260901154204 85 240 4.0 13.0 0.00 0.00 0.00 71 1017.2
20260901154103 85 232 4.0 9.0 0.00 0.00 0.00 69 1017.0
20260901154024 85 229 4.0 9.0 0.00 0.00 0.00 69 1017.0
20260901153902 85 235 4.0 9.0 0.00 0.00 0.00 71 1017.1
20260901153804 85 236 4.0 9.0 0.00 0.00 0.00 70 1017.1
20260901153703 85 245 4.0 9.0 0.00 0.00 0.00 72 1017.0
20260901153602 85 247 5.0 11.0 0.00 0.00 0.00 71 1017.1
20260901153524 85 245 4.0 11.0 0.00 0.00 0.00 70 1017.1
20260901153403 85 252 4.0 11.0 0.00 0.00 0.00 71 1017.0
20260901153302 85 255 4.0 11.0 0.00 0.00 0.00 71 1017.1
20260901153202 85 256 4.0 11.0 0.00 0.00 0.00 71 1017.1
20260901153102 85 259 4.0 11.0 0.00 0.00 0.00 72 1016.9
20260901153004 85 262 4.0 11.0 0.00 0.00 0.00 72 1017.1
20260901152902 84 268 4.0 11.0 0.00 0.00 0.00 72 1016.9
20260901152803 84 268 4.0 11.0 0.00 0.00 0.00 73 1016.9
20260901152702 84 261 3.0 11.0 0.00 0.00 0.00 72 1017.0
20260901152604 84 263 3.0 7.0 0.00 0.00 0.00 72 1017.1
20260901152504 84 257 3.0 7.0 0.00 0.00 0.00 73 1017.0
20260901152402 84 259 3.0 9.0 0.00 0.00 0.00 73 1017.0
20260901152306 84 268 3.0 9.0 0.00 0.00 0.00 73 1017.0
20260901152203 84 258 3.0 9.0 0.00 0.00 0.00 73 1017.1
20260901152102 84 276 3.0 9.0 0.00 0.00 0.00 73 1016.8
20260901152004 84 320 3.0 9.0 0.00 0.00 0.00 73 1017.0
20260901151902 84 314 3.0 9.0 0.00 0.00 0.00 73 1017.1
20260901151823 83 327 3.0 9.0 0.00 0.00 0.00 74 1017.0
20260901151702 83 314 3.0 9.0 0.00 0.00 0.00 74 1017.1
20260901151602 83 313 3.0 9.0 0.00 0.00 0.00 73 1017.3
20260901151502 84 345 3.0 9.0 0.00 0.00 0.00 74 1017.2
20260901151404 84 327 3.0 9.0 0.00 0.00 0.00 72 1017.1
20260901151303 84 318 3.0 8.0 0.00 0.00 0.00 75 1017.1
20260901151203 84 278 3.0 8.0 0.00 0.00 0.00 73 1017.3
20260901151123 84 259 3.0 8.0 0.00 0.00 0.00 73 1017.2
20260901151003 84 267 3.0 8.0 0.00 0.00 0.00 74 1017.1
20260901150924 84 282 3.0 8.0 0.00 0.00 0.00 73 1017.0
20260901150804 84 280 3.0 8.0 0.00 0.00 0.00 73 1017.1
20260901150704 84 270 3.0 7.0 0.00 0.00 0.00 73 1017.1
20260901150602 84 267 3.0 10.0 0.00 0.00 0.00 74 1016.9
20260901150523 84 268 4.0 10.0 0.00 0.00 0.00 73 1016.9
20260901150402 84 265 4.0 10.0 0.00 0.00 0.00 72 1017.0
20260901150302 84 272 4.0 10.0 0.00 0.00 0.00 71 1017.0
20260901150202 84 283 4.0 10.0 0.00 0.00 0.00 72 1017.1
20260901150124 84 286 4.0 10.0 0.00 0.00 0.00 73 1017.2
20260901150004 84 287 4.0 10.0 0.00 0.00 0.00 73 1017.1
20260901145904 84 279 4.0 10.0 0.00 0.00 0.00 73 1017.2
20260901145803 84 276 4.0 10.0 0.00 0.00 0.00 73 1017.0
20260901145702 84 272 4.0 10.0 0.00 0.00 0.00 74 1017.0
20260901145625 84 267 4.0 10.0 0.00 0.00 0.00 72 1017.2
20260901145504 84 266 4.0 10.0 0.00 0.00 0.00 73 1016.9
20260901145403 84 268 4.0 9.0 0.00 0.00 0.00 73 1016.9
20260901145306 84 262 4.0 9.0 0.00 0.00 0.00 73 1017.0
20260901145224 84 268 4.0 9.0 0.00 0.00 0.00 72 1016.9
20260901145103 84 261 4.0 10.0 0.00 0.00 0.00 73 1017.0
20260901145024 83 255 4.0 10.0 0.00 0.00 0.00 74 1017.0
20260901144902 83 250 4.0 10.0 0.00 0.00 0.00 74 1017.0
20260901144802 83 252 4.0 10.0 0.00 0.00 0.00 74 1017.0
20260901144704 83 248 4.0 10.0 0.00 0.00 0.00 74 1017.1
20260901144603 83 251 4.0 10.0 0.00 0.00 0.00 74 1017.0
20260901144502 83 251 4.0 10.0 0.00 0.00 0.00 74 1017.0
20260901144403 83 248 3.0 10.0 0.00 0.00 0.00 74 1017.2
20260901144302 83 256 4.0 10.0 0.00 0.00 0.00 73 1017.2
20260901144225 83 257 4.0 10.0 0.00 0.00 0.00 73 1017.3
20260901144102 83 259 4.0 9.0 0.00 0.00 0.00 74 1017.1
20260901144002 83 261 4.0 9.0 0.00 0.00 0.00 74 1017.1
20260901143902 83 267 4.0 9.0 0.00 0.00 0.00 73 1017.2